Time,TemperatureF,DewpointF,PressureIn,WindDirection,WindDirectionDegrees,WindSpeedMPH,WindSpeedGustMPH,Humidity,HourlyPrecipIn,Conditions,Clouds,dailyrainin,SoftwareType,DateUTC
2013-02-20 00:00:00,33.5,14.9,30.06,West,271,0.0,0.0,46,0.00,CLR,SCT,0.08,WeatherDisplay:10.37,2013-02-20 05:00:00,
2013-02-20 00:05:00,33.4,14.8,30.06,West,271,0.0,0.0,46,0.00,RA,SCT,0.00,WeatherDisplay:10.37,2013-02-20 05:05:00,
2013-02-20 00:08:00,33.2,14.6,30.06,West,271,0.0,0.0,46,0.00,RA,SCT,0.00,WeatherDisplay:10.37,2013-02-20 05:08:00,
2013-02-20 00:10:00,33.1,14.5,30.06,West,271,0.0,1.6,46,0.00,RA,SCT,0.00,WeatherDisplay:10.37,2013-02-20 05:10:00,
2013-02-20 00:11:00,33.1,14.5,30.06,West,270,4.6,4.6,46,0.00,CLR,SCT,0.00,WeatherDisplay:10.37,2013-02-20 05:11:00,
2013-02-20 00:12:00,33.1,15.0,30.06,West,270,4.6,4.6,47,0.00,CLR,SCT,0.00,WeatherDisplay:10.37,2013-02-20 05:12:00,
2013-02-20 00:15:00,32.9,14.8,30.07,West,271,5.0,5.0,47,0.00,CLR,SCT,0.00,WeatherDisplay:10.37,2013-02-20 05:15:00,
2013-02-20 00:16:00,32.9,14.8,30.07,West,272,5.8,5.8,47,0.00,CLR,SCT,0.00,WeatherDisplay:10.37,2013-02-20 05:16:00,
2013-02-20 00:17:00,32.9,14.8,30.07,West,272,5.8,5.8,47,0.00,CLR,SCT,0.00,WeatherDisplay:10.37,2013-02-20 05:17:00,
2013-02-20 00:18:00,32.9,14.8,30.07,West,273,5.0,5.0,47,0.00,CLR,SCT,0.00,WeatherDisplay:10.37,2013-02-20 05:18:00,
2013-02-20 00:21:00,33.1,15.0,30.07,West,260,5.8,5.8,47,0.00,CLR,SCT,0.00,WeatherDisplay:10.37,2013-02-20 05:21:00,
2013-02-20 00:23:00,33.1,15.0,30.07,West,261,5.8,5.8,47,0.00,CLR,SCT,0.00,WeatherDisplay:10.37,2013-02-20 05:23:00,
2013-02-20 00:24:00,33.1,15.0,30.07,West,280,5.8,5.8,47,0.00,CLR,SCT,0.00,WeatherDisplay:10.37,2013-02-20 05:24:00,
2013-02-20 00:26:00,33.1,15.0,30.08,West,265,6.9,6.9,47,0.00,CLR,SCT,0.00,WeatherDisplay:10.37,2013-02-20 05:26:00,
2013-02-20 00:30:00,33.1,15.0,30.08,West,265,0.0,0.0,47,0.00,CLR,SCT,0.00,WeatherDisplay:10.37,2013-02-20 05:30:00,
2013-02-20 00:31:00,33.1,15.0,30.08,West,265,0.0,0.0,47,0.00,CLR,SCT,0.00,WeatherDisplay:10.37,2013-02-20 05:31:00,
2013-02-20 00:34:00,32.8,14.8,30.08,West,265,0.0,0.0,47,0.00,CLR,SCT,0.00,WeatherDisplay:10.37,2013-02-20 05:34:00,
2013-02-20 00:36:00,32.7,14.7,30.08,West,265,0.0,0.0,47,0.00,CLR,SCT,0.00,WeatherDisplay:10.37,2013-02-20 05:36:00,
2013-02-20 00:37:00,32.7,14.7,30.08,West,265,0.0,0.0,47,0.00,CLR,SCT,0.00,WeatherDisplay:10.37,2013-02-20 05:37:00,
2013-02-20 00:41:00,32.4,14.9,30.08,West,265,0.0,0.0,48,0.00,CLR,SCT,0.00,WeatherDisplay:10.37,2013-02-20 05:41:00,
2013-02-20 00:42:00,32.2,14.7,30.08,SW,215,2.0,3.1,48,0.00,CLR,SCT,0.00,WeatherDisplay:10.37,2013-02-20 05:42:00,
2013-02-20 00:43:00,32.2,14.7,30.08,SW,215,8.1,8.1,48,0.00,CLR,SCT,0.00,WeatherDisplay:10.37,2013-02-20 05:43:00,
2013-02-20 00:45:00,32.1,14.6,30.08,SW,231,5.8,5.8,48,0.00,CLR,SCT,0.00,WeatherDisplay:10.37,2013-02-20 05:45:00,
2013-02-20 00:49:00,31.8,14.8,30.08,SW,224,5.8,5.8,49,0.00,CLR,SCT,0.00,WeatherDisplay:10.37,2013-02-20 05:49:00,
2013-02-20 00:50:00,31.6,14.6,30.08,WSW,252,6.0,6.0,49,0.00,CLR,SCT,0.00,WeatherDisplay:10.37,2013-02-20 05:50:00,
2013-02-20 00:54:00,31.5,14.5,30.08,WSW,250,5.0,5.0,49,0.00,CLR,SCT,0.00,WeatherDisplay:10.37,2013-02-20 05:54:00,
2013-02-20 00:55:00,31.5,14.5,30.08,WSW,250,4.6,4.6,49,0.00,CLR,SCT,0.00,WeatherDisplay:10.37,2013-02-20 05:55:00,
2013-02-20 00:56:00,31.5,14.5,30.08,SW,233,3.5,4.6,49,0.00,CLR,SCT,0.00,WeatherDisplay:10.37,2013-02-20 05:56:00,
2013-02-20 01:01:00,31.8,14.8,30.08,WSW,252,9.0,9.0,49,0.00,CLR,SCT,0.00,WeatherDisplay:10.37,2013-02-20 06:01:00,
2013-02-20 01:02:00,31.8,14.8,30.08,SW,234,9.2,9.2,49,0.00,CLR,SCT,0.00,WeatherDisplay:10.37,2013-02-20 06:02:00,
2013-02-20 01:04:00,31.9,14.9,30.08,SW,234,8.1,8.1,49,0.00,CLR,SCT,0.00,WeatherDisplay:10.37,2013-02-20 06:04:00,
2013-02-20 01:07:00,32.1,15.1,30.08,WSW,242,10.0,10.0,49,0.00,CLR,SCT,0.00,WeatherDisplay:10.37,2013-02-20 06:07:00,
2013-02-20 01:08:00,32.2,15.2,30.08,SW,227,11.5,11.5,49,0.00,CLR,SCT,0.00,WeatherDisplay:10.37,2013-02-20 06:08:00,
2013-02-20 01:13:00,32.7,15.6,30.08,WSW,246,9.0,9.0,49,0.00,CLR,SCT,0.00,WeatherDisplay:10.37,2013-02-20 06:13:00,
2013-02-20 01:14:00,32.8,15.7,30.08,WSW,250,12.0,12.0,49,0.00,CLR,SCT,0.00,WeatherDisplay:10.37,2013-02-20 06:14:00,
2013-02-20 01:17:00,32.9,15.8,30.08,WSW,243,9.2,9.2,49,0.00,CLR,SCT,0.00,WeatherDisplay:10.37,2013-02-20 06:17:00,
2013-02-20 01:19:00,32.9,15.8,30.07,West,261,10.4,10.4,49,0.00,CLR,SCT,0.00,WeatherDisplay:10.37,2013-02-20 06:19:00,
2013-02-20 01:22:00,32.9,15.8,30.07,West,266,9.2,9.2,49,0.00,CLR,SCT,0.00,WeatherDisplay:10.37,2013-02-20 06:22:00,
2013-02-20 01:25:00,33.1,16.0,30.07,West,267,10.4,10.4,49,0.00,CLR,SCT,0.00,WeatherDisplay:10.37,2013-02-20 06:25:00,
2013-02-20 01:28:00,33.1,16.0,30.07,West,265,9.2,9.2,49,0.00,CLR,SCT,0.00,WeatherDisplay:10.37,2013-02-20 06:28:00,
2013-02-20 01:31:00,32.9,15.8,30.07,WSW,258,6.9,6.9,49,0.00,CLR,SCT,0.00,WeatherDisplay:10.37,2013-02-20 06:31:00,
2013-02-20 01:34:00,32.9,15.8,30.07,West,259,6.9,6.9,49,0.00,CLR,SCT,0.00,WeatherDisplay:10.37,2013-02-20 06:34:00,
2013-02-20 01:37:00,32.9,15.8,30.08,WSW,246,11.5,11.5,49,0.00,CLR,SCT,0.00,WeatherDisplay:10.37,2013-02-20 06:37:00,
2013-02-20 01:38:00,32.9,15.8,30.07,WSW,246,9.2,9.2,49,0.00,CLR,SCT,0.00,WeatherDisplay:10.37,2013-02-20 06:38:00,
2013-02-20 01:42:00,32.9,15.8,30.07,WSW,257,6.9,6.9,49,0.00,CLR,SCT,0.00,WeatherDisplay:10.37,2013-02-20 06:42:00,
2013-02-20 01:44:00,32.8,15.7,30.07,WSW,254,10.4,10.4,49,0.00,CLR,SCT,0.00,WeatherDisplay:10.37,2013-02-20 06:44:00,
2013-02-20 01:46:00,32.8,15.7,30.07,WSW,254,8.1,8.1,49,0.00,CLR,SCT,0.00,WeatherDisplay:10.37,2013-02-20 06:46:00,
2013-02-20 01:49:00,32.9,15.8,30.07,WSW,248,11.5,11.5,49,0.00,CLR,SCT,0.00,WeatherDisplay:10.37,2013-02-20 06:49:00,
2013-02-20 01:51:00,32.9,15.8,30.07,WSW,256,11.5,11.5,49,0.00,CLR,SCT,0.00,WeatherDisplay:10.37,2013-02-20 06:51:00,
2013-02-20 01:54:00,32.9,15.8,30.07,WSW,252,10.4,10.4,49,0.00,CLR,SCT,0.00,WeatherDisplay:10.37,2013-02-20 06:54:00,
2013-02-20 01:57:00,32.9,15.8,30.07,WSW,243,11.5,11.5,49,0.00,CLR,SCT,0.00,WeatherDisplay:10.37,2013-02-20 06:57:00,
2013-02-20 01:59:00,32.9,15.8,30.07,WSW,250,11.5,11.5,49,0.00,CLR,SCT,0.00,WeatherDisplay:10.37,2013-02-20 06:59:00,
2013-02-20 02:01:00,32.9,15.8,30.07,WSW,251,11.5,11.5,49,0.00,CLR,SCT,0.00,WeatherDisplay:10.37,2013-02-20 07:01:00,
2013-02-20 02:02:00,32.9,15.8,30.07,WSW,248,11.5,11.5,49,0.00,CLR,SCT,0.00,WeatherDisplay:10.37,2013-02-20 07:02:00,
2013-02-20 02:04:00,32.9,15.8,30.07,WSW,247,12.7,12.7,49,0.00,CLR,SCT,0.00,WeatherDisplay:10.37,2013-02-20 07:04:00,
2013-02-20 02:05:00,32.9,15.8,30.07,WSW,256,11.0,11.0,49,0.00,,SCT,0.00,WeatherDisplay:10.37,2013-02-20 07:05:00,
2013-02-20 02:07:00,32.9,15.8,30.07,WSW,255,12.7,12.7,49,0.00,,SCT,0.00,WeatherDisplay:10.37,2013-02-20 07:07:00,
2013-02-20 02:08:00,32.9,15.8,30.07,SW,224,11.5,11.5,49,0.00,,SCT,0.00,WeatherDisplay:10.37,2013-02-20 07:08:00,
2013-02-20 02:11:00,32.9,15.8,30.07,WSW,250,12.7,12.7,49,0.00,,SCT,0.00,WeatherDisplay:10.37,2013-02-20 07:11:00,
2013-02-20 02:12:00,32.9,15.8,30.07,WSW,257,12.7,12.7,49,0.00,,SCT,0.00,WeatherDisplay:10.37,2013-02-20 07:12:00,
2013-02-20 02:14:00,32.9,15.8,30.07,West,273,13.0,13.0,49,0.00,,SCT,0.00,WeatherDisplay:10.37,2013-02-20 07:14:00,
2013-02-20 02:16:00,32.9,15.8,30.07,WSW,258,10.4,10.4,49,0.00,,SCT,0.00,WeatherDisplay:10.37,2013-02-20 07:16:00,
2013-02-20 02:18:00,32.8,15.7,30.07,WSW,244,11.5,11.5,49,0.00,,SCT,0.00,WeatherDisplay:10.37,2013-02-20 07:18:00,
2013-02-20 02:19:00,32.8,15.7,30.07,WSW,239,11.5,11.5,49,0.00,,SCT,0.00,WeatherDisplay:10.37,2013-02-20 07:19:00,
2013-02-20 02:22:00,32.8,15.7,30.07,WSW,248,10.4,10.4,49,0.00,,SCT,0.00,WeatherDisplay:10.37,2013-02-20 07:22:00,
2013-02-20 02:25:00,32.7,15.6,30.08,SW,219,10.4,10.4,49,0.00,,SCT,0.00,WeatherDisplay:10.37,2013-02-20 07:25:00,
2013-02-20 02:27:00,32.7,15.6,30.08,WSW,239,10.4,10.4,49,0.00,,SCT,0.00,WeatherDisplay:10.37,2013-02-20 07:27:00,
2013-02-20 02:30:00,32.7,15.6,30.08,WSW,241,6.0,6.0,49,0.00,,SCT,0.00,WeatherDisplay:10.37,2013-02-20 07:30:00,
2013-02-20 02:31:00,32.5,15.4,30.08,WSW,240,12.0,12.0,49,0.00,,SCT,0.00,WeatherDisplay:10.37,2013-02-20 07:31:00,
2013-02-20 02:32:00,32.5,15.4,30.08,WSW,250,11.5,11.5,49,0.00,,SCT,0.00,WeatherDisplay:10.37,2013-02-20 07:32:00,
2013-02-20 02:33:00,32.5,15.4,30.08,WSW,252,11.5,11.5,49,0.00,,SCT,0.00,WeatherDisplay:10.37,2013-02-20 07:33:00,
2013-02-20 02:37:00,32.4,15.3,30.08,SW,234,10.4,10.4,49,0.00,,SCT,0.00,WeatherDisplay:10.37,2013-02-20 07:37:00,
2013-02-20 02:38:00,32.4,15.3,30.08,WSW,256,10.4,10.4,49,0.00,,SCT,0.00,WeatherDisplay:10.37,2013-02-20 07:38:00,
2013-02-20 02:39:00,32.4,15.3,30.08,WSW,242,9.2,9.2,49,0.00,,SCT,0.00,WeatherDisplay:10.37,2013-02-20 07:39:00,
2013-02-20 02:42:00,32.4,15.3,30.08,West,259,10.4,10.4,49,0.00,,SCT,0.00,WeatherDisplay:10.37,2013-02-20 07:42:00,
2013-02-20 02:44:00,32.4,15.3,30.08,SW,234,9.2,9.2,49,0.00,,SCT,0.00,WeatherDisplay:10.37,2013-02-20 07:44:00,
2013-02-20 02:47:00,32.2,15.2,30.08,SW,236,9.2,9.2,49,0.00,,SCT,0.00,WeatherDisplay:10.37,2013-02-20 07:47:00,
2013-02-20 02:48:00,32.2,15.2,30.08,SW,233,11.5,11.5,49,0.00,,SCT,0.00,WeatherDisplay:10.37,2013-02-20 07:48:00,
2013-02-20 02:50:00,32.2,15.2,30.08,WSW,244,10.4,10.4,49,0.00,,SCT,0.00,WeatherDisplay:10.37,2013-02-20 07:50:00,
2013-02-20 02:52:00,32.2,15.2,30.08,SW,224,6.0,6.0,49,0.00,,SCT,0.00,WeatherDisplay:10.37,2013-02-20 07:52:00,
2013-02-20 02:53:00,32.2,15.2,30.08,SW,224,5.8,5.8,49,0.00,,SCT,0.00,WeatherDisplay:10.37,2013-02-20 07:53:00,
2013-02-20 02:55:00,32.1,15.1,30.08,SW,225,5.8,5.8,49,0.00,,SCT,0.00,WeatherDisplay:10.37,2013-02-20 07:55:00,
2013-02-20 02:59:00,31.9,14.9,30.08,SW,225,3.5,3.5,49,0.00,,SCT,0.00,WeatherDisplay:10.37,2013-02-20 07:59:00,
2013-02-20 03:05:00,31.6,14.6,30.08,SW,218,4.6,4.6,49,0.00,,SCT,0.00,WeatherDisplay:10.37,2013-02-20 08:05:00,
2013-02-20 03:06:00,31.5,14.5,30.08,SW,218,3.5,3.5,49,0.00,,SCT,0.00,WeatherDisplay:10.37,2013-02-20 08:06:00,
2013-02-20 03:07:00,31.5,14.5,30.08,SW,218,3.5,3.5,49,0.00,,SCT,0.00,WeatherDisplay:10.37,2013-02-20 08:07:00,
2013-02-20 03:08:00,31.5,14.5,30.08,SW,218,3.5,3.5,49,0.00,,SCT,0.00,WeatherDisplay:10.37,2013-02-20 08:08:00,
2013-02-20 03:11:00,31.3,14.3,30.08,SW,218,3.5,3.5,49,0.00,,SCT,0.00,WeatherDisplay:10.37,2013-02-20 08:11:00,
2013-02-20 03:12:00,31.2,14.7,30.08,SW,218,5.8,5.8,50,0.00,,SCT,0.00,WeatherDisplay:10.37,2013-02-20 08:12:00,
2013-02-20 03:17:00,30.9,14.4,30.08,SSW,210,5.0,5.4,50,0.00,,SCT,0.00,WeatherDisplay:10.37,2013-02-20 08:17:00,
2013-02-20 03:20:00,30.7,14.2,30.08,SSW,205,5.8,5.8,50,0.00,,SCT,0.00,WeatherDisplay:10.37,2013-02-20 08:20:00,
2013-02-20 03:22:00,30.7,14.2,30.08,SSW,195,10.4,10.4,50,0.00,,SCT,0.00,WeatherDisplay:10.37,2013-02-20 08:22:00,
2013-02-20 03:23:00,30.6,14.1,30.08,SW,219,9.0,9.0,50,0.00,,SCT,0.00,WeatherDisplay:10.37,2013-02-20 08:23:00,
2013-02-20 03:27:00,30.6,14.6,30.08,SSW,210,4.6,4.6,51,0.00,,SCT,0.00,WeatherDisplay:10.37,2013-02-20 08:27:00,
2013-02-20 03:28:00,30.6,14.6,30.08,SSW,210,4.6,4.6,51,0.00,,SCT,0.00,WeatherDisplay:10.37,2013-02-20 08:28:00,
2013-02-20 03:32:00,30.6,14.6,30.08,SSW,213,8.1,8.1,51,0.00,,SCT,0.00,WeatherDisplay:10.37,2013-02-20 08:32:00,
2013-02-20 03:33:00,30.6,14.6,30.08,SW,215,9.2,9.2,51,0.00,,SCT,0.00,WeatherDisplay:10.37,2013-02-20 08:33:00,
2013-02-20 03:34:00,30.6,15.0,30.08,SSW,213,6.9,6.9,52,0.00,,SCT,0.00,WeatherDisplay:10.37,2013-02-20 08:34:00,
2013-02-20 03:37:00,30.4,14.4,30.08,SW,226,6.0,6.0,51,0.00,,SCT,0.00,WeatherDisplay:10.37,2013-02-20 08:37:00,
2013-02-20 03:39:00,30.4,14.4,30.08,SW,226,9.2,9.2,51,0.00,,SCT,0.00,WeatherDisplay:10.37,2013-02-20 08:39:00,
2013-02-20 03:42:00,30.4,14.9,30.08,SSW,199,8.1,8.1,52,0.00,,SCT,0.00,WeatherDisplay:10.37,2013-02-20 08:42:00,
2013-02-20 03:43:00,30.4,14.9,30.08,SSW,199,6.9,6.9,52,0.00,,SCT,0.00,WeatherDisplay:10.37,2013-02-20 08:43:00,
2013-02-20 03:44:00,30.3,14.8,30.08,SSW,200,4.6,4.6,52,0.00,,SCT,0.00,WeatherDisplay:10.37,2013-02-20 08:44:00,
2013-02-20 03:49:00,30.1,14.6,30.08,SW,217,4.6,5.8,52,0.00,,SCT,0.00,WeatherDisplay:10.37,2013-02-20 08:49:00,
2013-02-20 03:50:00,30.1,14.6,30.08,SW,217,10.4,10.4,52,0.00,,SCT,0.00,WeatherDisplay:10.37,2013-02-20 08:50:00,
2013-02-20 03:55:00,30.0,14.9,30.08,SW,217,5.8,5.8,53,0.00,,SCT,0.00,WeatherDisplay:10.37,2013-02-20 08:55:00,
2013-02-20 03:56:00,30.0,14.9,30.08,SW,217,4.6,4.6,53,0.00,,SCT,0.00,WeatherDisplay:10.37,2013-02-20 08:56:00,
2013-02-20 03:58:00,29.8,14.7,30.08,SW,230,5.8,5.8,53,0.00,,SCT,0.00,WeatherDisplay:10.37,2013-02-20 08:58:00,
2013-02-20 04:02:00,29.8,14.7,30.08,SSW,206,9.2,9.2,53,0.00,,SCT,0.00,WeatherDisplay:10.37,2013-02-20 09:02:00,
2013-02-20 04:03:00,29.8,14.7,30.08,SSW,207,9.2,9.2,53,0.00,,SCT,0.00,WeatherDisplay:10.37,2013-02-20 09:03:00,
2013-02-20 04:04:00,29.8,14.7,30.08,SSW,208,5.8,5.8,53,0.00,,SCT,0.00,WeatherDisplay:10.37,2013-02-20 09:04:00,
2013-02-20 04:08:00,29.8,15.2,30.09,SW,219,8.1,8.1,54,0.00,,SCT,0.00,WeatherDisplay:10.37,2013-02-20 09:08:00,
2013-02-20 04:09:00,29.8,15.2,30.09,SW,220,8.1,8.1,54,0.00,,SCT,0.00,WeatherDisplay:10.37,2013-02-20 09:09:00,
2013-02-20 04:12:00,29.8,15.2,30.09,SSW,210,6.9,6.9,54,0.00,,SCT,0.00,WeatherDisplay:10.37,2013-02-20 09:12:00,
2013-02-20 04:13:00,29.8,15.2,30.09,SW,227,8.1,8.1,54,0.00,,SCT,0.00,WeatherDisplay:10.37,2013-02-20 09:13:00,
2013-02-20 04:14:00,29.8,15.2,30.09,SW,222,9.2,9.2,54,0.00,,SCT,0.00,WeatherDisplay:10.37,2013-02-20 09:14:00,
2013-02-20 04:18:00,29.8,15.2,30.09,SW,215,9.2,9.2,54,0.00,,SCT,0.00,WeatherDisplay:10.37,2013-02-20 09:18:00,
2013-02-20 04:19:00,29.8,15.2,30.09,SW,216,5.8,5.8,54,0.00,,SCT,0.00,WeatherDisplay:10.37,2013-02-20 09:19:00,
2013-02-20 04:21:00,30.0,15.3,30.09,SSW,202,6.9,6.9,54,0.00,,SCT,0.00,WeatherDisplay:10.37,2013-02-20 09:21:00,
2013-02-20 04:23:00,30.0,15.3,30.09,SSW,210,7.0,7.0,54,0.00,,SCT,0.00,WeatherDisplay:10.37,2013-02-20 09:23:00,
2013-02-20 04:24:00,30.0,15.3,30.09,SW,219,6.9,6.9,54,0.00,,SCT,0.00,WeatherDisplay:10.37,2013-02-20 09:24:00,
2013-02-20 04:26:00,30.0,15.3,30.09,SW,234,5.8,5.8,54,0.00,,SCT,0.00,WeatherDisplay:10.37,2013-02-20 09:26:00,
2013-02-20 04:29:00,30.0,15.3,30.09,SW,220,10.4,10.4,54,0.00,,SCT,0.00,WeatherDisplay:10.37,2013-02-20 09:29:00,
2013-02-20 04:33:00,30.1,15.4,30.09,SW,217,7.0,7.0,54,0.00,,SCT,0.00,WeatherDisplay:10.37,2013-02-20 09:33:00,
2013-02-20 04:34:00,30.1,15.0,30.09,SW,218,6.9,6.9,53,0.00,,SCT,0.00,WeatherDisplay:10.37,2013-02-20 09:34:00,
2013-02-20 04:37:00,30.1,15.0,30.09,SW,227,6.9,6.9,53,0.00,,SCT,0.00,WeatherDisplay:10.37,2013-02-20 09:37:00,
2013-02-20 04:39:00,30.1,15.0,30.09,SW,227,0.0,0.0,53,0.00,,SCT,0.00,WeatherDisplay:10.37,2013-02-20 09:39:00,
2013-02-20 04:40:00,30.1,15.0,30.09,SW,227,0.0,0.0,53,0.00,,SCT,0.00,WeatherDisplay:10.37,2013-02-20 09:40:00,
2013-02-20 04:41:00,30.0,14.9,30.09,SW,227,0.0,0.0,53,0.00,,SCT,0.00,WeatherDisplay:10.37,2013-02-20 09:41:00,
2013-02-20 04:45:00,30.0,14.9,30.09,SW,226,0.0,0.0,53,0.00,,SCT,0.00,WeatherDisplay:10.37,2013-02-20 09:45:00,
2013-02-20 04:48:00,30.0,14.9,30.09,SW,226,0.0,0.0,53,0.00,,SCT,0.00,WeatherDisplay:10.37,2013-02-20 09:48:00,
2013-02-20 04:52:00,29.8,14.7,30.09,SW,225,0.0,0.0,53,0.00,,SCT,0.00,WeatherDisplay:10.37,2013-02-20 09:52:00,
2013-02-20 04:53:00,29.8,14.7,30.09,SW,219,0.0,0.0,53,0.00,,SCT,0.00,WeatherDisplay:10.37,2013-02-20 09:53:00,
2013-02-20 04:57:00,29.8,14.7,30.09,SW,219,0.0,0.0,53,0.00,,SCT,0.00,WeatherDisplay:10.37,2013-02-20 09:57:00,
2013-02-20 04:59:00,29.7,14.6,30.09,SW,220,0.0,0.0,53,0.00,,SCT,0.00,WeatherDisplay:10.37,2013-02-20 09:59:00,
2013-02-20 05:00:00,29.7,14.6,30.09,SW,220,0.0,0.0,53,0.00,,SCT,0.00,WeatherDisplay:10.37,2013-02-20 10:00:00,
2013-02-20 05:02:00,29.7,14.6,30.09,SW,228,0.0,0.0,53,0.00,,SCT,0.00,WeatherDisplay:10.37,2013-02-20 10:02:00,
2013-02-20 05:06:00,29.5,14.5,30.10,SW,227,0.0,0.0,53,0.00,,SCT,0.00,WeatherDisplay:10.37,2013-02-20 10:06:00,
2013-02-20 05:07:00,29.5,14.5,30.10,SW,228,0.0,0.0,53,0.00,,SCT,0.00,WeatherDisplay:10.37,2013-02-20 10:07:00,
2013-02-20 05:12:00,29.4,14.4,30.10,SW,228,0.0,0.0,53,0.00,,SCT,0.00,WeatherDisplay:10.37,2013-02-20 10:12:00,
2013-02-20 05:13:00,29.3,14.3,30.10,SW,228,0.0,0.0,53,0.00,,SCT,0.00,WeatherDisplay:10.37,2013-02-20 10:13:00,
2013-02-20 05:14:00,29.3,14.3,30.10,SW,228,0.0,0.0,53,0.00,,SCT,0.00,WeatherDisplay:10.37,2013-02-20 10:14:00,
2013-02-20 05:15:00,29.3,14.3,30.10,SW,228,0.0,0.0,53,0.00,,SCT,0.00,WeatherDisplay:10.37,2013-02-20 10:15:00,
2013-02-20 05:17:00,29.1,14.1,30.10,SW,228,0.0,0.0,53,0.00,,SCT,0.00,WeatherDisplay:10.37,2013-02-20 10:17:00,
2013-02-20 05:20:00,29.0,14.0,30.10,SW,228,0.0,0.0,53,0.00,,SCT,0.00,WeatherDisplay:10.37,2013-02-20 10:20:00,
2013-02-20 05:22:00,29.0,14.0,30.10,SW,228,0.0,0.0,53,0.00,,SCT,0.00,WeatherDisplay:10.37,2013-02-20 10:22:00,
2013-02-20 05:23:00,28.8,13.8,30.10,SW,228,0.0,0.0,53,0.00,,SCT,0.00,WeatherDisplay:10.37,2013-02-20 10:23:00,
2013-02-20 05:24:00,28.8,13.8,30.10,SW,228,0.0,0.0,53,0.00,,SCT,0.00,WeatherDisplay:10.37,2013-02-20 10:24:00,
2013-02-20 05:27:00,28.5,13.9,30.10,SW,228,0.0,0.0,54,0.00,,SCT,0.00,WeatherDisplay:10.37,2013-02-20 10:27:00,
2013-02-20 05:31:00,28.4,13.9,30.10,SW,228,0.0,0.0,54,0.00,,SCT,0.00,WeatherDisplay:10.37,2013-02-20 10:31:00,
2013-02-20 05:32:00,28.4,13.9,30.10,SW,228,0.0,0.0,54,0.00,,SCT,0.00,WeatherDisplay:10.37,2013-02-20 10:32:00,
2013-02-20 05:36:00,28.2,13.7,30.11,SW,228,0.0,0.0,54,0.00,,SCT,0.00,WeatherDisplay:10.37,2013-02-20 10:36:00,
2013-02-20 05:37:00,28.2,13.7,30.11,SW,228,0.0,0.0,54,0.00,,SCT,0.00,WeatherDisplay:10.37,2013-02-20 10:37:00,
2013-02-20 05:41:00,28.1,13.6,30.11,SW,228,0.0,0.0,54,0.00,,SCT,0.00,WeatherDisplay:10.37,2013-02-20 10:41:00,
2013-02-20 05:42:00,28.1,13.6,30.11,SW,228,0.0,0.0,54,0.00,,SCT,0.00,WeatherDisplay:10.37,2013-02-20 10:42:00,
2013-02-20 05:43:00,28.1,13.6,30.11,SW,228,0.0,0.0,54,0.00,,SCT,0.00,WeatherDisplay:10.37,2013-02-20 10:43:00,
2013-02-20 05:45:00,28.1,13.6,30.11,SW,228,0.0,0.0,54,0.00,,SCT,0.00,WeatherDisplay:10.37,2013-02-20 10:45:00,
2013-02-20 05:48:00,27.9,13.4,30.11,SW,228,0.0,0.0,54,0.00,,SCT,0.00,WeatherDisplay:10.37,2013-02-20 10:48:00,
2013-02-20 05:52:00,27.8,13.3,30.10,SW,228,0.0,0.0,54,0.00,,SCT,0.00,WeatherDisplay:10.37,2013-02-20 10:52:00,
2013-02-20 05:53:00,27.8,13.3,30.11,SW,228,0.0,0.0,54,0.00,,SCT,0.00,WeatherDisplay:10.37,2013-02-20 10:53:00,
2013-02-20 05:56:00,27.6,13.5,30.11,SW,228,0.0,0.0,55,0.00,,SCT,0.00,WeatherDisplay:10.37,2013-02-20 10:56:00,
2013-02-20 05:58:00,27.6,13.5,30.11,SW,228,0.0,0.0,55,0.00,,SCT,0.00,WeatherDisplay:10.37,2013-02-20 10:58:00,
2013-02-20 05:59:00,27.6,13.5,30.10,SW,228,0.0,0.0,55,0.00,,SCT,0.00,WeatherDisplay:10.37,2013-02-20 10:59:00,
2013-02-20 06:03:00,27.5,13.0,30.11,SW,228,0.0,0.0,54,0.00,,SCT,0.00,WeatherDisplay:10.37,2013-02-20 11:03:00,
2013-02-20 06:04:00,27.5,13.4,30.12,SW,228,0.0,0.0,55,0.00,,SCT,0.00,WeatherDisplay:10.37,2013-02-20 11:04:00,
2013-02-20 06:07:00,27.3,13.2,30.12,SW,228,0.0,0.0,55,0.00,,SCT,0.00,WeatherDisplay:10.37,2013-02-20 11:07:00,
2013-02-20 06:09:00,27.2,13.1,30.12,SW,228,0.0,0.0,55,0.00,,SCT,0.00,WeatherDisplay:10.37,2013-02-20 11:09:00,
2013-02-20 06:10:00,27.0,13.0,30.12,SW,233,0.0,0.0,55,0.00,,SCT,0.00,WeatherDisplay:10.37,2013-02-20 11:10:00,
2013-02-20 06:12:00,27.0,13.0,30.12,SW,233,0.0,0.0,55,0.00,,SCT,0.00,WeatherDisplay:10.37,2013-02-20 11:12:00,
2013-02-20 06:14:00,26.9,12.9,30.12,SW,233,0.0,0.0,55,0.00,,SCT,0.00,WeatherDisplay:10.37,2013-02-20 11:14:00,
2013-02-20 06:15:00,26.9,12.9,30.12,SW,233,0.0,0.0,55,0.00,,SCT,0.00,WeatherDisplay:10.37,2013-02-20 11:15:00,
2013-02-20 06:16:00,26.7,12.7,30.12,SW,233,0.0,0.0,55,0.00,,SCT,0.00,WeatherDisplay:10.37,2013-02-20 11:16:00,
2013-02-20 06:20:00,26.7,12.7,30.12,SW,234,0.0,0.0,55,0.00,,SCT,0.00,WeatherDisplay:10.37,2013-02-20 11:20:00,
2013-02-20 06:21:00,26.7,12.7,30.12,SW,234,0.0,0.0,55,0.00,,SCT,0.00,WeatherDisplay:10.37,2013-02-20 11:21:00,
2013-02-20 06:22:00,26.7,12.7,30.12,SW,234,0.0,0.0,55,0.00,,SCT,0.00,WeatherDisplay:10.37,2013-02-20 11:22:00,
2013-02-20 06:23:00,26.7,12.7,30.12,SW,234,0.0,0.0,55,0.00,,SCT,0.00,WeatherDisplay:10.37,2013-02-20 11:23:00,
2013-02-20 06:27:00,26.9,13.3,30.12,SW,234,0.0,0.0,56,0.00,,SCT,0.00,WeatherDisplay:10.37,2013-02-20 11:27:00,
2013-02-20 06:28:00,27.0,13.4,30.12,SW,234,0.0,0.0,56,0.00,,SCT,0.00,WeatherDisplay:10.37,2013-02-20 11:28:00,
2013-02-20 06:30:00,27.0,13.4,30.12,SW,234,0.0,0.0,56,0.00,,SCT,0.00,WeatherDisplay:10.37,2013-02-20 11:30:00,
2013-02-20 06:32:00,27.0,13.4,30.12,SW,234,0.0,0.0,56,0.00,,SCT,0.00,WeatherDisplay:10.37,2013-02-20 11:32:00,
2013-02-20 06:33:00,27.0,13.4,30.12,SW,234,0.0,0.0,56,0.00,,SCT,0.00,WeatherDisplay:10.37,2013-02-20 11:33:00,
2013-02-20 06:36:00,27.0,13.4,30.12,SW,234,0.0,0.0,56,0.00,,SCT,0.00,WeatherDisplay:10.37,2013-02-20 11:36:00,
2013-02-20 06:40:00,27.0,13.4,30.12,SW,234,0.0,0.0,56,0.00,,SCT,0.00,WeatherDisplay:10.37,2013-02-20 11:40:00,
2013-02-20 06:43:00,27.0,13.4,30.12,SW,234,0.0,0.0,56,0.00,,SCT,0.00,WeatherDisplay:10.37,2013-02-20 11:43:00,
2013-02-20 06:45:00,27.2,13.6,30.12,SW,234,0.0,0.0,56,0.00,,SCT,0.00,WeatherDisplay:10.37,2013-02-20 11:45:00,
2013-02-20 06:46:00,27.2,13.6,30.12,SW,234,0.0,0.0,56,0.00,,SCT,0.00,WeatherDisplay:10.37,2013-02-20 11:46:00,
2013-02-20 06:47:00,27.2,14.0,30.12,SW,234,0.0,0.0,57,0.00,,SCT,0.00,WeatherDisplay:10.37,2013-02-20 11:47:00,
2013-02-20 06:48:00,27.2,13.6,30.12,SW,234,0.0,0.0,56,0.00,,SCT,0.00,WeatherDisplay:10.37,2013-02-20 11:48:00,
2013-02-20 06:53:00,27.0,13.4,30.12,SW,234,0.0,0.0,56,0.00,,SCT,0.00,WeatherDisplay:10.37,2013-02-20 11:53:00,
2013-02-20 06:55:00,26.9,13.3,30.12,SW,234,0.0,0.0,56,0.00,,SCT,0.00,WeatherDisplay:10.37,2013-02-20 11:55:00,
2013-02-20 06:58:00,26.7,13.1,30.12,SW,234,0.0,0.0,56,0.00,,SCT,0.00,WeatherDisplay:10.37,2013-02-20 11:58:00,
2013-02-20 06:59:00,26.7,13.1,30.12,SW,234,0.0,0.0,56,0.00,,SCT,0.00,WeatherDisplay:10.37,2013-02-20 11:59:00,
2013-02-20 07:00:00,26.6,13.0,30.12,SW,234,0.0,0.0,56,0.00,,SCT,0.00,WeatherDisplay:10.37,2013-02-20 12:00:00,
2013-02-20 07:03:00,26.4,13.2,30.13,SW,234,0.0,0.0,57,0.00,CLR,SCT,0.00,WeatherDisplay:10.37,2013-02-20 12:03:00,
2013-02-20 07:05:00,26.4,13.2,30.13,SW,234,0.0,0.0,57,0.00,CLR,SCT,0.00,WeatherDisplay:10.37,2013-02-20 12:05:00,
2013-02-20 07:07:00,26.4,13.2,30.13,SW,234,0.0,0.0,57,0.00,CLR,SCT,0.00,WeatherDisplay:10.37,2013-02-20 12:07:00,
2013-02-20 07:08:00,26.3,13.1,30.13,SW,234,0.0,0.0,57,0.00,CLR,SCT,0.00,WeatherDisplay:10.37,2013-02-20 12:08:00,
2013-02-20 07:10:00,26.3,13.1,30.13,SW,234,0.0,0.0,57,0.00,CLR,SCT,0.00,WeatherDisplay:10.37,2013-02-20 12:10:00,
2013-02-20 07:12:00,26.3,13.1,30.13,SW,234,0.0,0.0,57,0.00,CLR,SCT,0.00,WeatherDisplay:10.37,2013-02-20 12:12:00,
2013-02-20 07:15:00,26.3,13.1,30.13,SW,234,0.0,0.0,57,0.00,CLR,SCT,0.00,WeatherDisplay:10.37,2013-02-20 12:15:00,
2013-02-20 07:16:00,26.1,12.9,30.13,SW,234,0.0,0.0,57,0.00,CLR,SCT,0.00,WeatherDisplay:10.37,2013-02-20 12:16:00,
2013-02-20 07:19:00,26.1,12.9,30.13,SW,234,0.0,0.0,57,0.00,CLR,SCT,0.00,WeatherDisplay:10.37,2013-02-20 12:19:00,
2013-02-20 07:21:00,26.1,12.9,30.13,SW,234,0.0,0.0,57,0.00,CLR,SCT,0.00,WeatherDisplay:10.37,2013-02-20 12:21:00,
2013-02-20 07:22:00,26.0,12.8,30.13,SW,234,0.0,0.0,57,0.00,CLR,SCT,0.00,WeatherDisplay:10.37,2013-02-20 12:22:00,
2013-02-20 07:26:00,26.0,12.8,30.13,SW,234,0.0,0.0,57,0.00,CLR,SCT,0.00,WeatherDisplay:10.37,2013-02-20 12:26:00,
2013-02-20 07:27:00,26.0,12.8,30.13,SW,234,0.0,0.0,57,0.00,CLR,SCT,0.00,WeatherDisplay:10.37,2013-02-20 12:27:00,
2013-02-20 07:29:00,26.0,12.8,30.13,SW,234,0.0,0.0,57,0.00,CLR,SCT,0.00,WeatherDisplay:10.37,2013-02-20 12:29:00,
2013-02-20 07:31:00,26.0,12.8,30.13,SW,234,0.0,0.0,57,0.00,CLR,SCT,0.00,WeatherDisplay:10.37,2013-02-20 12:31:00,
2013-02-20 07:32:00,25.8,12.6,30.13,SW,234,0.0,0.0,57,0.00,CLR,SCT,0.00,WeatherDisplay:10.37,2013-02-20 12:32:00,
2013-02-20 07:34:00,25.8,12.6,30.13,SW,234,0.0,0.0,57,0.00,CLR,SCT,0.00,WeatherDisplay:10.37,2013-02-20 12:34:00,
2013-02-20 07:35:00,25.8,12.6,30.13,SW,234,0.0,0.0,57,0.00,CLR,SCT,0.00,WeatherDisplay:10.37,2013-02-20 12:35:00,
2013-02-20 07:38:00,25.8,12.6,30.13,SW,234,0.0,0.0,57,0.00,CLR,SCT,0.00,WeatherDisplay:10.37,2013-02-20 12:38:00,
2013-02-20 07:40:00,25.7,12.6,30.13,SW,234,0.0,0.0,57,0.00,CLR,SCT,0.00,WeatherDisplay:10.37,2013-02-20 12:40:00,
2013-02-20 07:41:00,25.7,12.9,30.13,SW,234,0.0,0.0,58,0.00,CLR,SCT,0.00,WeatherDisplay:10.37,2013-02-20 12:41:00,
2013-02-20 07:43:00,25.8,13.0,30.13,SW,234,0.0,0.0,58,0.00,CLR,SCT,0.00,WeatherDisplay:10.37,2013-02-20 12:43:00,
2013-02-20 07:45:00,25.8,13.0,30.13,SW,219,0.0,0.0,58,0.00,CLR,SCT,0.00,WeatherDisplay:10.37,2013-02-20 12:45:00,
2013-02-20 07:46:00,26.0,13.2,30.13,SW,219,0.0,0.0,58,0.00,CLR,SCT,0.00,WeatherDisplay:10.37,2013-02-20 12:46:00,
2013-02-20 07:51:00,26.3,13.9,30.13,SW,219,0.0,0.0,59,0.00,CLR,SCT,0.00,WeatherDisplay:10.37,2013-02-20 12:51:00,
2013-02-20 07:54:00,26.6,14.2,30.13,WSW,247,3.0,3.0,59,0.00,CLR,SCT,0.00,WeatherDisplay:10.37,2013-02-20 12:54:00,
2013-02-20 07:56:00,26.7,13.9,30.13,WSW,247,3.5,0.0,58,0.00,CLR,SCT,0.00,WeatherDisplay:10.37,2013-02-20 12:56:00,
2013-02-20 07:59:00,27.2,14.8,30.13,WSW,248,3.5,3.5,59,0.00,CLR,SCT,0.00,WeatherDisplay:10.37,2013-02-20 12:59:00,
2013-02-20 08:01:00,27.5,15.0,30.14,WSW,248,1.1,1.1,59,0.00,CLR,SCT,0.00,WeatherDisplay:10.37,2013-02-20 13:01:00,
2013-02-20 08:06:00,28.1,15.2,30.14,WSW,242,2.3,2.3,58,0.00,CLR,SCT,0.00,WeatherDisplay:10.37,2013-02-20 13:06:00,
2013-02-20 08:07:00,28.2,15.3,30.14,WSW,242,5.8,5.8,58,0.00,CLR,SCT,0.00,WeatherDisplay:10.37,2013-02-20 13:07:00,
2013-02-20 08:08:00,28.4,15.5,30.14,WSW,244,3.5,3.5,58,0.00,CLR,SCT,0.00,WeatherDisplay:10.37,2013-02-20 13:08:00,
2013-02-20 08:12:00,28.8,15.9,30.14,WSW,238,2.3,2.3,58,0.00,CLR,SCT,0.00,WeatherDisplay:10.37,2013-02-20 13:12:00,
2013-02-20 08:13:00,29.0,16.1,30.14,WSW,239,2.3,2.3,58,0.00,CLR,SCT,0.00,WeatherDisplay:10.37,2013-02-20 13:13:00,
2013-02-20 08:15:00,29.1,16.1,30.14,WSW,239,2.3,2.3,58,0.00,CLR,SCT,0.00,WeatherDisplay:10.37,2013-02-20 13:15:00,
2013-02-20 08:17:00,29.3,16.3,30.14,WSW,237,2.3,2.3,58,0.00,CLR,SCT,0.00,WeatherDisplay:10.37,2013-02-20 13:17:00,
2013-02-20 08:18:00,29.4,16.4,30.14,WSW,251,4.0,4.0,58,0.00,CLR,SCT,0.00,WeatherDisplay:10.37,2013-02-20 13:18:00,
2013-02-20 08:20:00,29.5,16.5,30.14,SW,226,4.6,4.6,58,0.00,CLR,SCT,0.00,WeatherDisplay:10.37,2013-02-20 13:20:00,
2013-02-20 08:22:00,29.7,16.7,30.14,WSW,244,5.8,5.8,58,0.00,CLR,SCT,0.00,WeatherDisplay:10.37,2013-02-20 13:22:00,
2013-02-20 08:24:00,29.8,16.8,30.14,WSW,253,5.8,5.8,58,0.00,CLR,SCT,0.00,WeatherDisplay:10.37,2013-02-20 13:24:00,
2013-02-20 08:26:00,30.0,17.0,30.14,WSW,253,3.5,3.5,58,0.00,CLR,SCT,0.00,WeatherDisplay:10.37,2013-02-20 13:26:00,
2013-02-20 08:28:00,30.1,16.7,30.14,SW,232,2.3,2.3,57,0.00,CLR,SCT,0.00,WeatherDisplay:10.37,2013-02-20 13:28:00,
2013-02-20 08:29:00,30.1,17.1,30.14,SW,230,1.1,1.1,58,0.00,CLR,SCT,0.00,WeatherDisplay:10.37,2013-02-20 13:29:00,
2013-02-20 08:31:00,30.3,17.3,30.14,SW,232,2.3,2.3,58,0.00,CLR,SCT,0.00,WeatherDisplay:10.37,2013-02-20 13:31:00,
2013-02-20 08:33:00,30.4,17.0,30.14,WSW,247,3.0,3.0,57,0.00,CLR,SCT,0.00,WeatherDisplay:10.37,2013-02-20 13:33:00,
2013-02-20 08:35:00,30.4,17.0,30.14,WSW,238,4.6,4.6,57,0.00,CLR,SCT,0.00,WeatherDisplay:10.37,2013-02-20 13:35:00,
2013-02-20 08:38:00,30.7,17.3,30.14,WSW,246,5.0,5.0,57,0.00,CLR,SCT,0.00,WeatherDisplay:10.37,2013-02-20 13:38:00,
2013-02-20 08:41:00,30.7,17.3,30.14,West,267,4.6,4.6,57,0.00,CLR,SCT,0.00,WeatherDisplay:10.37,2013-02-20 13:41:00,
2013-02-20 08:43:00,30.9,17.4,30.14,WSW,246,4.0,4.0,57,0.00,CLR,SCT,0.00,WeatherDisplay:10.37,2013-02-20 13:43:00,
2013-02-20 08:46:00,30.9,17.0,30.14,West,265,8.1,8.1,56,0.00,CLR,SCT,0.00,WeatherDisplay:10.37,2013-02-20 13:46:00,
2013-02-20 08:48:00,31.0,17.5,30.14,WSW,248,6.9,6.9,57,0.00,CLR,SCT,0.00,WeatherDisplay:10.37,2013-02-20 13:48:00,
2013-02-20 08:49:00,31.0,17.1,30.14,WSW,252,4.0,4.0,56,0.00,CLR,SCT,0.00,WeatherDisplay:10.37,2013-02-20 13:49:00,
2013-02-20 08:51:00,31.0,17.5,30.14,WSW,256,4.6,4.6,57,0.00,CLR,SCT,0.00,WeatherDisplay:10.37,2013-02-20 13:51:00,
2013-02-20 08:53:00,31.2,17.7,30.14,WSW,257,8.1,8.1,57,0.00,CLR,SCT,0.00,WeatherDisplay:10.37,2013-02-20 13:53:00,
2013-02-20 08:54:00,31.2,17.7,30.14,WSW,257,4.6,4.6,57,0.00,CLR,SCT,0.00,WeatherDisplay:10.37,2013-02-20 13:54:00,
2013-02-20 08:56:00,31.2,17.3,30.14,WSW,249,4.6,4.6,56,0.00,CLR,SCT,0.00,WeatherDisplay:10.37,2013-02-20 13:56:00,
2013-02-20 09:00:00,31.5,18.0,30.15,WSW,248,3.5,3.5,57,0.00,CLR,SCT,0.00,WeatherDisplay:10.37,2013-02-20 14:00:00,
2013-02-20 09:01:00,31.5,18.0,30.15,WSW,251,5.0,5.0,57,0.00,CLR,SCT,0.00,WeatherDisplay:10.37,2013-02-20 14:01:00,
2013-02-20 09:05:00,31.6,17.7,30.15,SW,235,6.9,6.9,56,0.00,CLR,SCT,0.00,WeatherDisplay:10.37,2013-02-20 14:05:00,
2013-02-20 09:07:00,31.6,17.7,30.15,SW,235,6.9,6.9,56,0.00,CLR,SCT,0.00,WeatherDisplay:10.37,2013-02-20 14:07:00,
2013-02-20 09:10:00,31.8,17.9,30.14,WSW,244,4.6,4.6,56,0.00,CLR,SCT,0.00,WeatherDisplay:10.37,2013-02-20 14:10:00,
2013-02-20 09:12:00,31.8,17.9,30.15,WSW,247,5.8,5.8,56,0.00,CLR,SCT,0.00,WeatherDisplay:10.37,2013-02-20 14:12:00,
2013-02-20 09:17:00,31.9,18.0,30.15,SW,216,5.8,5.8,56,0.00,CLR,SCT,0.00,WeatherDisplay:10.37,2013-02-20 14:17:00,
2013-02-20 09:19:00,31.9,18.0,30.15,WSW,250,6.9,6.9,56,0.00,CLR,SCT,0.00,WeatherDisplay:10.37,2013-02-20 14:19:00,
2013-02-20 09:21:00,32.1,18.2,30.15,SW,226,3.5,3.5,56,0.00,CLR,SCT,0.00,WeatherDisplay:10.37,2013-02-20 14:21:00,
2013-02-20 09:25:00,32.2,18.2,30.15,West,266,5.8,5.8,56,0.00,CLR,SCT,0.00,WeatherDisplay:10.37,2013-02-20 14:25:00,
2013-02-20 09:26:00,32.2,18.2,30.15,WSW,239,5.8,5.8,56,0.00,CLR,SCT,0.00,WeatherDisplay:10.37,2013-02-20 14:26:00,
2013-02-20 09:27:00,32.4,18.4,30.15,WSW,246,9.0,9.0,56,0.00,CLR,SCT,0.00,WeatherDisplay:10.37,2013-02-20 14:27:00,
2013-02-20 09:32:00,32.5,18.5,30.15,WSW,246,9.2,9.2,56,0.00,CLR,SCT,0.00,WeatherDisplay:10.37,2013-02-20 14:32:00,
2013-02-20 09:33:00,32.5,18.1,30.15,WSW,246,9.2,9.2,55,0.00,CLR,SCT,0.00,WeatherDisplay:10.37,2013-02-20 14:33:00,
2013-02-20 09:34:00,32.5,18.5,30.15,WSW,250,10.4,10.4,56,0.00,CLR,SCT,0.00,WeatherDisplay:10.37,2013-02-20 14:34:00,
2013-02-20 09:37:00,32.7,18.3,30.15,West,279,11.5,11.5,55,0.00,CLR,SCT,0.00,WeatherDisplay:10.37,2013-02-20 14:37:00,
2013-02-20 09:39:00,32.7,17.9,30.15,West,272,10.4,10.4,54,0.00,CLR,SCT,0.00,WeatherDisplay:10.37,2013-02-20 14:39:00,
2013-02-20 09:41:00,32.8,18.0,30.15,West,262,11.5,11.5,54,0.00,CLR,SCT,0.00,WeatherDisplay:10.37,2013-02-20 14:41:00,
2013-02-20 09:44:00,32.9,18.1,30.15,West,263,12.7,12.7,54,0.00,CLR,SCT,0.00,WeatherDisplay:10.37,2013-02-20 14:44:00,
2013-02-20 09:45:00,32.9,18.1,30.15,West,261,11.5,11.5,54,0.00,CLR,SCT,0.00,WeatherDisplay:10.37,2013-02-20 14:45:00,
2013-02-20 09:46:00,32.9,18.1,30.15,West,263,11.5,11.5,54,0.00,CLR,SCT,0.00,WeatherDisplay:10.37,2013-02-20 14:46:00,
2013-02-20 09:50:00,33.2,18.3,30.15,West,271,11.5,11.5,54,0.00,CLR,SCT,0.00,WeatherDisplay:10.37,2013-02-20 14:50:00,
2013-02-20 09:51:00,33.2,17.9,30.15,WSW,248,12.7,12.7,53,0.00,CLR,SCT,0.00,WeatherDisplay:10.37,2013-02-20 14:51:00,
2013-02-20 09:52:00,33.2,17.5,30.15,WSW,253,12.7,12.7,52,0.00,CLR,SCT,0.00,WeatherDisplay:10.37,2013-02-20 14:52:00,
2013-02-20 09:56:00,33.4,18.1,30.15,West,267,10.4,10.4,53,0.00,CLR,SCT,0.00,WeatherDisplay:10.37,2013-02-20 14:56:00,
2013-02-20 09:57:00,33.5,18.2,30.15,West,262,10.4,10.4,53,0.00,CLR,SCT,0.00,WeatherDisplay:10.37,2013-02-20 14:57:00,
2013-02-20 10:00:00,33.5,18.2,30.15,West,271,11.5,11.5,53,0.00,CLR,SCT,0.00,WeatherDisplay:10.37,2013-02-20 15:00:00,
2013-02-20 10:01:00,33.7,18.4,30.15,West,271,9.2,9.2,53,0.00,CLR,SCT,0.00,WeatherDisplay:10.37,2013-02-20 15:01:00,
2013-02-20 10:03:00,33.7,18.4,30.15,West,263,13.8,13.8,53,0.00,CLR,SCT,0.00,WeatherDisplay:10.37,2013-02-20 15:03:00,
2013-02-20 10:07:00,34.0,18.6,30.15,West,275,6.9,6.9,53,0.00,CLR,SCT,0.00,WeatherDisplay:10.37,2013-02-20 15:07:00,
2013-02-20 10:08:00,34.0,18.6,30.15,WNW,285,7.0,7.0,53,0.00,CLR,SCT,0.00,WeatherDisplay:10.37,2013-02-20 15:08:00,
2013-02-20 10:11:00,34.0,18.2,30.15,WSW,258,12.7,12.7,52,0.00,CLR,SCT,0.00,WeatherDisplay:10.37,2013-02-20 15:11:00,
2013-02-20 10:12:00,34.1,18.7,30.15,WSW,249,11.5,11.5,53,0.00,CLR,SCT,0.00,WeatherDisplay:10.37,2013-02-20 15:12:00,
2013-02-20 10:15:00,34.1,18.7,30.15,West,271,11.5,11.5,53,0.00,CLR,SCT,0.00,WeatherDisplay:10.37,2013-02-20 15:15:00,
2013-02-20 10:17:00,34.1,18.3,30.15,West,265,11.5,11.5,52,0.00,CLR,SCT,0.00,WeatherDisplay:10.37,2013-02-20 15:17:00,
2013-02-20 10:21:00,34.4,19.0,30.15,West,280,9.0,9.0,53,0.00,CLR,SCT,0.00,WeatherDisplay:10.37,2013-02-20 15:21:00,
2013-02-20 10:22:00,34.4,18.6,30.15,WSW,250,10.4,10.4,52,0.00,CLR,SCT,0.00,WeatherDisplay:10.37,2013-02-20 15:22:00,
2013-02-20 10:26:00,34.6,18.8,30.15,West,265,4.6,4.6,52,0.00,CLR,SCT,0.00,WeatherDisplay:10.37,2013-02-20 15:26:00,
2013-02-20 10:27:00,34.6,18.8,30.15,WSW,248,3.5,5.8,52,0.00,CLR,SCT,0.00,WeatherDisplay:10.37,2013-02-20 15:27:00,
2013-02-20 10:29:00,34.7,18.4,30.15,West,271,11.5,11.5,51,0.00,CLR,SCT,0.00,WeatherDisplay:10.37,2013-02-20 15:29:00,
2013-02-20 10:31:00,34.7,18.9,30.15,WNW,288,9.2,9.2,52,0.00,CLR,SCT,0.00,WeatherDisplay:10.37,2013-02-20 15:31:00,
2013-02-20 10:33:00,35.0,19.1,30.15,West,275,9.2,9.2,52,0.00,CLR,SCT,0.00,WeatherDisplay:10.37,2013-02-20 15:33:00,
2013-02-20 10:38:00,35.3,19.0,30.15,WSW,243,11.5,11.5,51,0.00,CLR,SCT,0.00,WeatherDisplay:10.37,2013-02-20 15:38:00,
2013-02-20 10:39:00,35.3,18.5,30.15,WSW,240,11.5,11.5,50,0.00,CLR,SCT,0.00,WeatherDisplay:10.37,2013-02-20 15:39:00,
2013-02-20 10:40:00,35.3,18.5,30.15,WSW,253,12.7,12.7,50,0.00,CLR,SCT,0.00,WeatherDisplay:10.37,2013-02-20 15:40:00,
2013-02-20 10:45:00,35.3,18.0,30.15,West,261,10.4,10.4,49,0.00,CLR,SCT,0.00,WeatherDisplay:10.37,2013-02-20 15:45:00,
2013-02-20 10:46:00,35.5,18.7,30.15,SW,224,14.0,14.0,50,0.00,CLR,SCT,0.00,WeatherDisplay:10.37,2013-02-20 15:46:00,
2013-02-20 10:48:00,35.3,17.5,30.15,WSW,257,13.8,13.8,48,0.00,CLR,SCT,0.00,WeatherDisplay:10.37,2013-02-20 15:48:00,
2013-02-20 10:50:00,35.3,17.5,30.15,West,261,11.5,11.5,48,0.00,CLR,SCT,0.00,WeatherDisplay:10.37,2013-02-20 15:50:00,
2013-02-20 10:51:00,35.5,18.2,30.15,West,263,6.9,6.9,49,0.00,CLR,SCT,0.00,WeatherDisplay:10.37,2013-02-20 15:51:00,
2013-02-20 10:53:00,35.5,18.2,30.15,West,263,10.0,10.0,49,0.00,CLR,SCT,0.00,WeatherDisplay:10.37,2013-02-20 15:53:00,
2013-02-20 10:55:00,35.6,17.3,30.15,WSW,254,13.0,13.0,47,0.00,CLR,SCT,0.00,WeatherDisplay:10.37,2013-02-20 15:55:00,
2013-02-20 10:56:00,35.6,17.8,30.15,WSW,254,14.0,14.0,48,0.00,CLR,SCT,0.00,WeatherDisplay:10.37,2013-02-20 15:56:00,
2013-02-20 11:01:00,35.6,16.8,30.15,SW,232,12.7,12.7,46,0.00,CLR,SCT,0.00,WeatherDisplay:10.37,2013-02-20 16:01:00,
2013-02-20 11:02:00,35.5,17.2,30.15,West,266,12.7,12.7,47,0.00,CLR,SCT,0.00,WeatherDisplay:10.37,2013-02-20 16:02:00,
2013-02-20 11:03:00,35.5,17.7,30.15,WSW,251,7.0,7.0,48,0.00,CLR,SCT,0.00,WeatherDisplay:10.37,2013-02-20 16:03:00,
2013-02-20 11:05:00,35.6,17.3,30.15,SW,219,13.8,13.8,47,0.00,CLR,SCT,0.00,WeatherDisplay:10.37,2013-02-20 16:05:00,
2013-02-20 11:07:00,35.6,16.8,30.16,WSW,252,15.0,15.0,46,0.00,CLR,SCT,0.00,WeatherDisplay:10.37,2013-02-20 16:07:00,
2013-02-20 11:08:00,35.6,16.8,30.15,WSW,251,11.5,11.5,46,0.00,CLR,SCT,0.00,WeatherDisplay:10.37,2013-02-20 16:08:00,
2013-02-20 11:11:00,35.8,17.5,30.16,West,281,10.4,10.4,47,0.00,CLR,SCT,0.00,WeatherDisplay:10.37,2013-02-20 16:11:00,
2013-02-20 11:12:00,35.8,17.5,30.15,West,276,10.4,10.4,47,0.00,CLR,SCT,0.00,WeatherDisplay:10.37,2013-02-20 16:12:00,
2013-02-20 11:13:00,35.9,17.6,30.15,WSW,254,12.7,12.7,47,0.00,CLR,SCT,0.00,WeatherDisplay:10.37,2013-02-20 16:13:00,
2013-02-20 11:15:00,35.9,17.1,30.15,WSW,257,11.5,11.5,46,0.00,CLR,SCT,0.00,WeatherDisplay:10.37,2013-02-20 16:15:00,
2013-02-20 11:18:00,36.0,17.2,30.15,SW,232,17.3,17.3,46,0.00,CLR,SCT,0.00,WeatherDisplay:10.37,2013-02-20 16:18:00,
2013-02-20 11:20:00,36.2,17.4,30.15,West,262,12.7,12.7,46,0.00,CLR,SCT,0.00,WeatherDisplay:10.37,2013-02-20 16:20:00,
2013-02-20 11:25:00,36.5,17.7,30.15,West,269,10.4,10.4,46,0.00,CLR,SCT,0.00,WeatherDisplay:10.37,2013-02-20 16:25:00,
2013-02-20 11:28:00,36.8,17.9,30.15,WSW,250,9.2,9.2,46,0.00,CLR,SCT,0.00,WeatherDisplay:10.37,2013-02-20 16:28:00,
2013-02-20 11:31:00,36.9,18.5,30.15,WSW,247,13.0,13.0,47,0.00,CLR,SCT,0.00,WeatherDisplay:10.37,2013-02-20 16:31:00,
2013-02-20 11:33:00,37.0,18.1,30.15,West,273,12.7,12.7,46,0.00,CLR,SCT,0.00,WeatherDisplay:10.37,2013-02-20 16:33:00,
2013-02-20 11:36:00,37.2,18.8,30.15,WSW,252,10.4,10.4,47,0.00,CLR,SCT,0.00,WeatherDisplay:10.37,2013-02-20 16:36:00,
2013-02-20 11:39:00,37.5,18.6,30.15,West,263,15.0,15.0,46,0.00,CLR,SCT,0.00,WeatherDisplay:10.37,2013-02-20 16:39:00,
2013-02-20 11:41:00,37.5,18.6,30.15,WSW,248,6.9,6.9,46,0.00,CLR,SCT,0.00,WeatherDisplay:10.37,2013-02-20 16:41:00,
2013-02-20 11:43:00,37.6,18.7,30.15,WSW,245,11.0,11.0,46,0.00,CLR,SCT,0.00,WeatherDisplay:10.37,2013-02-20 16:43:00,
2013-02-20 11:44:00,37.6,18.7,30.15,West,259,11.5,11.5,46,0.00,CLR,SCT,0.00,WeatherDisplay:10.37,2013-02-20 16:44:00,
2013-02-20 11:47:00,37.6,18.7,30.14,SW,232,6.0,6.0,46,0.00,CLR,SCT,0.00,WeatherDisplay:10.37,2013-02-20 16:47:00,
2013-02-20 11:48:00,37.8,18.8,30.14,WSW,251,6.9,6.9,46,0.00,CLR,SCT,0.00,WeatherDisplay:10.37,2013-02-20 16:48:00,
2013-02-20 11:51:00,37.9,18.4,30.15,WSW,253,10.4,10.4,45,0.00,CLR,SCT,0.00,WeatherDisplay:10.37,2013-02-20 16:51:00,
2013-02-20 11:53:00,38.0,18.5,30.14,West,280,12.0,12.0,45,0.00,CLR,SCT,0.00,WeatherDisplay:10.37,2013-02-20 16:53:00,
2013-02-20 11:54:00,38.0,17.5,30.14,WSW,250,12.7,12.7,43,0.00,CLR,SCT,0.00,WeatherDisplay:10.37,2013-02-20 16:54:00,
2013-02-20 11:57:00,38.0,17.5,30.14,West,259,11.5,11.5,43,0.00,CLR,SCT,0.00,WeatherDisplay:10.37,2013-02-20 16:57:00,
2013-02-20 12:01:00,38.0,17.5,30.14,West,266,10.4,10.4,43,0.00,CLR,SCT,0.00,WeatherDisplay:10.37,2013-02-20 17:01:00,
2013-02-20 12:02:00,38.0,17.5,30.14,WSW,247,9.0,9.0,43,0.00,CLR,SCT,0.00,WeatherDisplay:10.37,2013-02-20 17:02:00,
2013-02-20 12:04:00,37.9,16.8,30.14,West,264,11.5,11.5,42,0.00,CLR,SCT,0.00,WeatherDisplay:10.37,2013-02-20 17:04:00,
2013-02-20 12:05:00,37.9,16.8,30.14,West,265,6.9,6.9,42,0.00,CLR,SCT,0.00,WeatherDisplay:10.37,2013-02-20 17:05:00,
2013-02-20 12:07:00,37.9,16.8,30.14,West,272,13.8,13.8,42,0.00,CLR,SCT,0.00,WeatherDisplay:10.37,2013-02-20 17:07:00,
2013-02-20 12:10:00,37.9,16.8,30.14,West,270,9.2,9.2,42,0.00,CLR,SCT,0.00,WeatherDisplay:10.37,2013-02-20 17:10:00,
2013-02-20 12:11:00,38.0,16.9,30.14,West,268,9.2,9.2,42,0.00,CLR,SCT,0.00,WeatherDisplay:10.37,2013-02-20 17:11:00,
2013-02-20 12:12:00,38.0,16.9,30.14,West,268,8.1,8.1,42,0.00,CLR,SCT,0.00,WeatherDisplay:10.37,2013-02-20 17:12:00,
2013-02-20 12:15:00,38.2,17.1,30.13,West,262,13.8,13.8,42,0.00,CLR,SCT,0.00,WeatherDisplay:10.37,2013-02-20 17:15:00,
2013-02-20 12:17:00,38.2,16.5,30.13,West,264,13.8,13.8,41,0.00,CLR,SCT,0.00,WeatherDisplay:10.37,2013-02-20 17:17:00,
2013-02-20 12:18:00,38.3,16.6,30.13,West,260,12.0,12.0,41,0.00,CLR,SCT,0.00,WeatherDisplay:10.37,2013-02-20 17:18:00,
2013-02-20 12:21:00,38.5,16.8,30.13,West,275,11.5,11.5,41,0.00,CLR,SCT,0.00,WeatherDisplay:10.37,2013-02-20 17:21:00,
2013-02-20 12:22:00,38.5,16.8,30.14,West,266,14.0,14.0,41,0.00,CLR,SCT,0.00,WeatherDisplay:10.37,2013-02-20 17:22:00,
2013-02-20 12:23:00,38.6,15.7,30.14,West,268,16.1,16.1,39,0.00,CLR,SCT,0.00,WeatherDisplay:10.37,2013-02-20 17:23:00,
2013-02-20 12:25:00,38.6,16.3,30.13,West,259,12.7,12.7,40,0.00,CLR,SCT,0.00,WeatherDisplay:10.37,2013-02-20 17:25:00,
2013-02-20 12:28:00,38.8,17.1,30.13,WSW,252,11.5,11.5,41,0.00,CLR,SCT,0.00,WeatherDisplay:10.37,2013-02-20 17:28:00,
2013-02-20 12:29:00,38.8,15.9,30.13,SSW,200,11.5,11.5,39,0.00,CLR,SCT,0.00,WeatherDisplay:10.37,2013-02-20 17:29:00,
2013-02-20 12:31:00,38.8,16.5,30.13,WSW,256,8.1,8.1,40,0.00,CLR,SCT,0.00,WeatherDisplay:10.37,2013-02-20 17:31:00,
2013-02-20 12:33:00,39.1,17.9,30.13,West,281,11.5,11.5,42,0.00,CLR,SCT,0.00,WeatherDisplay:10.37,2013-02-20 17:33:00,
2013-02-20 12:34:00,39.2,17.4,30.13,WNW,282,4.6,4.6,41,0.00,CLR,SCT,0.00,WeatherDisplay:10.37,2013-02-20 17:34:00,
2013-02-20 12:35:00,39.2,17.4,30.13,West,279,7.0,7.0,41,0.00,CLR,SCT,0.00,WeatherDisplay:10.37,2013-02-20 17:35:00,
2013-02-20 12:38:00,39.5,17.1,30.12,SW,216,9.2,9.2,40,0.00,CLR,SCT,0.00,WeatherDisplay:10.37,2013-02-20 17:38:00,
2013-02-20 12:40:00,39.6,16.6,30.12,SW,227,12.7,12.7,39,0.00,CLR,SCT,0.00,WeatherDisplay:10.37,2013-02-20 17:40:00,
2013-02-20 12:44:00,39.8,16.2,30.12,West,274,13.8,13.8,38,0.00,CLR,SCT,0.00,WeatherDisplay:10.37,2013-02-20 17:44:00,
2013-02-20 12:45:00,39.8,16.8,30.12,West,267,10.4,10.4,39,0.00,CLR,SCT,0.00,WeatherDisplay:10.37,2013-02-20 17:45:00,
2013-02-20 12:48:00,39.9,17.5,30.12,West,273,10.4,10.4,40,0.00,CLR,SCT,0.00,WeatherDisplay:10.37,2013-02-20 17:48:00,
2013-02-20 12:50:00,40.1,17.7,30.12,West,267,11.5,11.5,40,0.00,CLR,SCT,0.00,WeatherDisplay:10.37,2013-02-20 17:50:00,
2013-02-20 12:52:00,40.1,17.7,30.12,West,259,10.4,10.4,40,0.00,CLR,SCT,0.00,WeatherDisplay:10.37,2013-02-20 17:52:00,
2013-02-20 12:54:00,40.2,17.2,30.12,WSW,250,10.4,10.4,39,0.00,CLR,SCT,0.00,WeatherDisplay:10.37,2013-02-20 17:54:00,
2013-02-20 12:56:00,40.2,16.6,30.12,West,264,17.3,17.3,38,0.00,CLR,SCT,0.00,WeatherDisplay:10.37,2013-02-20 17:56:00,
2013-02-20 12:58:00,40.2,17.2,30.12,SW,214,11.5,11.5,39,0.00,CLR,SCT,0.00,WeatherDisplay:10.37,2013-02-20 17:58:00,
2013-02-20 13:00:00,40.1,17.1,30.12,WSW,252,10.4,10.4,39,0.00,CLR,SCT,0.00,WeatherDisplay:10.37,2013-02-20 18:00:00,
2013-02-20 13:01:00,40.1,17.1,30.12,WSW,256,10.4,10.4,39,0.00,CLR,SCT,0.00,WeatherDisplay:10.37,2013-02-20 18:01:00,
2013-02-20 13:04:00,40.1,17.7,30.12,West,259,9.2,9.2,40,0.00,CLR,SCT,0.00,WeatherDisplay:10.37,2013-02-20 18:04:00,
2013-02-20 13:05:00,40.1,17.7,30.11,WSW,252,11.5,11.5,40,0.00,CLR,SCT,0.00,WeatherDisplay:10.37,2013-02-20 18:05:00,
2013-02-20 13:06:00,40.1,17.1,30.12,West,265,13.0,13.0,39,0.00,CLR,SCT,0.00,WeatherDisplay:10.37,2013-02-20 18:06:00,
2013-02-20 13:09:00,40.2,16.0,30.11,West,273,11.5,11.5,37,0.00,CLR,SCT,0.00,WeatherDisplay:10.37,2013-02-20 18:09:00,
2013-02-20 13:10:00,40.2,16.0,30.11,West,261,11.5,11.5,37,0.00,CLR,SCT,0.00,WeatherDisplay:10.37,2013-02-20 18:10:00,
2013-02-20 13:14:00,40.3,15.4,30.11,West,266,11.5,11.5,36,0.00,CLR,SCT,0.00,WeatherDisplay:10.37,2013-02-20 18:14:00,
2013-02-20 13:15:00,40.3,16.1,30.11,West,271,11.5,11.5,37,0.00,CLR,SCT,0.00,WeatherDisplay:10.37,2013-02-20 18:15:00,
2013-02-20 13:16:00,40.3,16.1,30.11,West,271,11.5,11.5,37,0.00,CLR,SCT,0.00,WeatherDisplay:10.37,2013-02-20 18:16:00,
2013-02-20 13:21:00,40.2,15.3,30.11,West,273,11.5,11.5,36,0.00,CLR,SCT,0.00,WeatherDisplay:10.37,2013-02-20 18:21:00,
2013-02-20 13:22:00,40.2,16.0,30.11,WNW,292,11.5,11.5,37,0.00,CLR,SCT,0.00,WeatherDisplay:10.37,2013-02-20 18:22:00,
2013-02-20 13:27:00,40.5,15.6,30.10,WNW,294,12.7,12.7,36,0.00,CLR,SCT,0.00,WeatherDisplay:10.37,2013-02-20 18:27:00,
2013-02-20 13:29:00,40.6,15.7,30.10,WNW,282,6.9,6.9,36,0.00,CLR,SCT,0.00,WeatherDisplay:10.37,2013-02-20 18:29:00,
2013-02-20 13:31:00,40.6,15.0,30.10,WNW,300,10.4,10.4,35,0.00,CLR,SCT,0.00,WeatherDisplay:10.37,2013-02-20 18:31:00,
2013-02-20 13:33:00,40.8,15.9,30.10,West,279,5.8,5.8,36,0.00,CLR,SCT,0.00,WeatherDisplay:10.37,2013-02-20 18:33:00,
2013-02-20 13:35:00,40.9,15.3,30.10,WSW,255,11.5,11.5,35,0.00,CLR,SCT,0.00,WeatherDisplay:10.37,2013-02-20 18:35:00,
2013-02-20 13:36:00,41.1,15.5,30.10,West,263,13.0,13.0,35,0.00,CLR,SCT,0.00,WeatherDisplay:10.37,2013-02-20 18:36:00,
2013-02-20 13:37:00,41.1,14.8,30.10,West,269,12.7,12.7,34,0.00,CLR,SCT,0.00,WeatherDisplay:10.37,2013-02-20 18:37:00,
2013-02-20 13:39:00,41.1,13.4,30.10,West,267,12.7,12.7,32,0.00,CLR,SCT,0.00,WeatherDisplay:10.37,2013-02-20 18:39:00,
2013-02-20 13:41:00,40.9,13.3,30.10,WSW,256,16.1,16.1,32,0.00,CLR,SCT,0.00,WeatherDisplay:10.37,2013-02-20 18:41:00,
2013-02-20 13:42:00,41.1,14.8,30.10,West,265,16.1,16.1,34,0.00,CLR,SCT,0.00,WeatherDisplay:10.37,2013-02-20 18:42:00,
2013-02-20 13:46:00,40.9,12.5,30.10,WSW,248,16.1,16.1,31,0.00,CLR,SCT,0.00,WeatherDisplay:10.37,2013-02-20 18:46:00,
2013-02-20 13:47:00,40.9,12.5,30.10,West,261,16.1,16.1,31,0.00,CLR,SCT,0.00,WeatherDisplay:10.37,2013-02-20 18:47:00,
2013-02-20 13:51:00,40.8,12.5,30.10,West,273,13.8,13.8,31,0.00,CLR,SCT,0.00,WeatherDisplay:10.37,2013-02-20 18:51:00,
2013-02-20 13:55:00,40.8,12.5,30.09,WSW,253,9.2,9.2,31,0.00,CLR,SCT,0.00,WeatherDisplay:10.37,2013-02-20 18:55:00,
2013-02-20 13:56:00,40.9,13.3,30.09,West,269,10.4,10.4,32,0.00,CLR,SCT,0.00,WeatherDisplay:10.37,2013-02-20 18:56:00,
2013-02-20 13:59:00,40.9,13.3,30.09,WNW,286,7.0,7.0,32,0.00,CLR,SCT,0.00,WeatherDisplay:10.37,2013-02-20 18:59:00,
2013-02-20 14:01:00,40.9,13.3,30.09,WNW,300,9.2,9.2,32,0.00,CLR,SCT,0.00,WeatherDisplay:10.37,2013-02-20 19:01:00,
2013-02-20 14:02:00,40.9,13.3,30.09,WNW,286,5.8,5.8,32,0.00,CLR,SCT,0.00,WeatherDisplay:10.37,2013-02-20 19:02:00,
2013-02-20 14:05:00,41.1,12.7,30.09,West,259,11.5,11.5,31,0.00,CLR,SCT,0.00,WeatherDisplay:10.37,2013-02-20 19:05:00,
2013-02-20 14:06:00,41.1,12.7,30.09,WNW,286,11.5,11.5,31,0.00,CLR,SCT,0.00,WeatherDisplay:10.37,2013-02-20 19:06:00,
2013-02-20 14:07:00,41.1,12.7,30.09,WNW,287,5.8,5.8,31,0.00,CLR,SCT,0.00,WeatherDisplay:10.37,2013-02-20 19:07:00,
2013-02-20 14:10:00,41.1,13.4,30.09,West,268,11.5,11.5,32,0.00,CLR,SCT,0.00,WeatherDisplay:10.37,2013-02-20 19:10:00,
2013-02-20 14:11:00,41.1,12.7,30.09,West,276,11.5,11.5,31,0.00,CLR,SCT,0.00,WeatherDisplay:10.37,2013-02-20 19:11:00,
2013-02-20 14:12:00,40.9,13.3,30.09,WNW,294,11.5,11.5,32,0.00,CLR,SCT,0.00,WeatherDisplay:10.37,2013-02-20 19:12:00,
2013-02-20 14:15:00,40.9,12.5,30.09,WNW,282,12.7,12.7,31,0.00,CLR,SCT,0.00,WeatherDisplay:10.37,2013-02-20 19:15:00,
2013-02-20 14:16:00,40.9,13.3,30.09,West,281,6.9,6.9,32,0.00,CLR,SCT,0.00,WeatherDisplay:10.37,2013-02-20 19:16:00,
2013-02-20 14:19:00,41.1,13.4,30.09,WNW,302,6.9,6.9,32,0.00,CLR,SCT,0.00,WeatherDisplay:10.37,2013-02-20 19:19:00,
2013-02-20 14:20:00,41.1,14.1,30.09,West,270,6.9,6.9,33,0.00,CLR,SCT,0.00,WeatherDisplay:10.37,2013-02-20 19:20:00,
2013-02-20 14:23:00,41.2,13.5,30.09,North,9,5.8,5.8,32,0.00,CLR,SCT,0.00,WeatherDisplay:10.37,2013-02-20 19:23:00,
2013-02-20 14:25:00,41.2,13.5,30.09,West,271,6.0,7.4,32,0.00,CLR,SCT,0.00,WeatherDisplay:10.37,2013-02-20 19:25:00,
2013-02-20 14:28:00,41.2,13.5,30.09,West,263,10.4,10.4,32,0.00,CLR,SCT,0.00,WeatherDisplay:10.37,2013-02-20 19:28:00,
2013-02-20 14:33:00,41.3,13.6,30.09,WNW,290,9.2,9.2,32,0.00,CLR,SCT,0.00,WeatherDisplay:10.37,2013-02-20 19:33:00,
2013-02-20 14:34:00,41.3,12.9,30.09,NNW,338,5.8,5.8,31,0.00,CLR,SCT,0.00,WeatherDisplay:10.37,2013-02-20 19:34:00,
2013-02-20 14:38:00,41.5,13.8,30.09,West,269,5.8,5.8,32,0.00,CLR,SCT,0.00,WeatherDisplay:10.37,2013-02-20 19:38:00,
2013-02-20 14:39:00,41.5,13.8,30.09,WSW,251,6.9,6.9,32,0.00,CLR,SCT,0.00,WeatherDisplay:10.37,2013-02-20 19:39:00,
2013-02-20 14:44:00,41.5,13.1,30.09,West,281,12.7,12.7,31,0.00,CLR,SCT,0.00,WeatherDisplay:10.37,2013-02-20 19:44:00,
2013-02-20 14:46:00,41.6,13.2,30.09,West,270,5.8,5.8,31,0.00,CLR,SCT,0.00,WeatherDisplay:10.37,2013-02-20 19:46:00,
2013-02-20 14:49:00,41.6,13.2,30.09,NNE,15,11.5,11.5,31,0.00,CLR,SCT,0.00,WeatherDisplay:10.37,2013-02-20 19:49:00,
2013-02-20 14:51:00,41.8,14.1,30.09,West,272,11.5,11.5,32,0.00,CLR,SCT,0.00,WeatherDisplay:10.37,2013-02-20 19:51:00,
2013-02-20 14:52:00,41.8,13.3,30.09,WNW,285,11.5,11.5,31,0.00,CLR,SCT,0.00,WeatherDisplay:10.37,2013-02-20 19:52:00,
2013-02-20 14:55:00,41.8,13.3,30.08,WNW,303,5.0,5.5,31,0.00,CLR,SCT,0.00,WeatherDisplay:10.37,2013-02-20 19:55:00,
2013-02-20 14:57:00,41.8,13.3,30.09,WSW,255,15.0,15.0,31,0.00,CLR,SCT,0.00,WeatherDisplay:10.37,2013-02-20 19:57:00,
2013-02-20 15:00:00,41.6,12.4,30.09,WSW,254,11.5,11.5,30,0.00,CLR,SCT,0.00,WeatherDisplay:10.37,2013-02-20 20:00:00,
2013-02-20 15:01:00,41.6,13.2,30.08,WSW,246,10.4,10.4,31,0.00,CLR,SCT,0.00,WeatherDisplay:10.37,2013-02-20 20:01:00,
2013-02-20 15:03:00,41.6,12.4,30.09,West,267,12.7,12.7,30,0.00,CLR,SCT,0.00,WeatherDisplay:10.37,2013-02-20 20:03:00,
2013-02-20 15:06:00,41.6,13.2,30.09,WSW,243,13.8,13.8,31,0.00,CLR,SCT,0.00,WeatherDisplay:10.37,2013-02-20 20:06:00,
2013-02-20 15:09:00,41.5,13.1,30.09,West,263,11.5,11.5,31,0.00,CLR,SCT,0.00,WeatherDisplay:10.37,2013-02-20 20:09:00,
2013-02-20 15:10:00,41.5,13.1,30.09,West,269,11.5,11.5,31,0.00,CLR,SCT,0.00,WeatherDisplay:10.37,2013-02-20 20:10:00,
2013-02-20 15:13:00,41.6,13.2,30.09,West,263,11.5,11.5,31,0.00,CLR,SCT,0.00,WeatherDisplay:10.37,2013-02-20 20:13:00,
2013-02-20 15:15:00,41.6,13.2,30.09,WSW,248,9.2,9.2,31,0.00,CLR,SCT,0.00,WeatherDisplay:10.37,2013-02-20 20:15:00,
2013-02-20 15:17:00,41.6,13.2,30.09,West,268,9.2,9.2,31,0.00,CLR,SCT,0.00,WeatherDisplay:10.37,2013-02-20 20:17:00,
2013-02-20 15:20:00,41.6,13.2,30.09,West,273,6.0,6.0,31,0.00,CLR,SCT,0.00,WeatherDisplay:10.37,2013-02-20 20:20:00,
2013-02-20 15:22:00,41.6,13.2,30.09,West,266,11.5,11.5,31,0.00,CLR,SCT,0.00,WeatherDisplay:10.37,2013-02-20 20:22:00,
2013-02-20 15:24:00,41.6,12.4,30.08,WSW,257,9.2,9.2,30,0.00,CLR,SCT,0.00,WeatherDisplay:10.37,2013-02-20 20:24:00,
2013-02-20 15:25:00,41.5,12.3,30.09,WSW,248,9.2,9.2,30,0.00,CLR,SCT,0.00,WeatherDisplay:10.37,2013-02-20 20:25:00,
2013-02-20 15:27:00,41.3,12.9,30.09,WSW,253,10.0,10.0,31,0.00,CLR,SCT,0.00,WeatherDisplay:10.37,2013-02-20 20:27:00,
2013-02-20 15:31:00,41.2,12.1,30.09,West,259,12.7,12.7,30,0.00,CLR,SCT,0.00,WeatherDisplay:10.37,2013-02-20 20:31:00,
2013-02-20 15:32:00,41.2,12.1,30.09,West,269,11.5,11.5,30,0.00,CLR,SCT,0.00,WeatherDisplay:10.37,2013-02-20 20:32:00,
2013-02-20 15:35:00,41.1,12.0,30.09,WNW,292,6.9,6.9,30,0.00,CLR,SCT,0.00,WeatherDisplay:10.37,2013-02-20 20:35:00,
2013-02-20 15:40:00,41.1,12.0,30.09,West,278,5.8,5.8,30,0.00,CLR,SCT,0.00,WeatherDisplay:10.37,2013-02-20 20:40:00,
2013-02-20 15:41:00,41.1,12.7,30.09,West,280,6.0,6.0,31,0.00,CLR,SCT,0.00,WeatherDisplay:10.37,2013-02-20 20:41:00,
2013-02-20 15:46:00,40.9,11.8,30.09,West,261,9.2,9.2,30,0.00,CLR,SCT,0.00,WeatherDisplay:10.37,2013-02-20 20:46:00,
2013-02-20 15:47:00,40.9,12.5,30.09,West,275,11.5,11.5,31,0.00,CLR,SCT,0.00,WeatherDisplay:10.37,2013-02-20 20:47:00,
2013-02-20 15:51:00,40.9,12.5,30.09,West,271,4.6,4.6,31,0.00,CLR,SCT,0.00,WeatherDisplay:10.37,2013-02-20 20:51:00,
2013-02-20 15:52:00,40.9,12.5,30.09,WNW,284,4.0,4.0,31,0.00,CLR,SCT,0.00,WeatherDisplay:10.37,2013-02-20 20:52:00,
2013-02-20 15:53:00,40.9,12.5,30.09,WSW,257,10.4,10.4,31,0.00,CLR,SCT,0.00,WeatherDisplay:10.37,2013-02-20 20:53:00,
2013-02-20 15:58:00,41.1,12.7,30.09,West,267,7.0,7.0,31,0.00,CLR,SCT,0.00,WeatherDisplay:10.37,2013-02-20 20:58:00,
2013-02-20 15:59:00,41.1,12.7,30.09,West,273,6.9,6.9,31,0.00,CLR,SCT,0.00,WeatherDisplay:10.37,2013-02-20 20:59:00,
2013-02-20 16:01:00,41.1,12.7,30.09,West,272,10.0,10.0,31,0.00,CLR,SCT,0.00,WeatherDisplay:10.37,2013-02-20 21:01:00,
2013-02-20 16:04:00,41.1,12.7,30.09,West,265,10.4,10.4,31,0.00,CLR,SCT,0.00,WeatherDisplay:10.37,2013-02-20 21:04:00,
2013-02-20 16:06:00,41.1,12.7,30.09,West,273,2.3,2.3,31,0.00,CLR,SCT,0.00,WeatherDisplay:10.37,2013-02-20 21:06:00,
2013-02-20 16:10:00,41.1,12.7,30.09,West,276,5.8,5.8,31,0.00,CLR,SCT,0.00,WeatherDisplay:10.37,2013-02-20 21:10:00,
2013-02-20 16:11:00,41.1,12.7,30.09,West,279,5.0,5.0,31,0.00,CLR,SCT,0.00,WeatherDisplay:10.37,2013-02-20 21:11:00,
2013-02-20 16:13:00,41.1,12.7,30.09,West,260,6.9,6.9,31,0.00,CLR,SCT,0.00,WeatherDisplay:10.37,2013-02-20 21:13:00,
2013-02-20 16:16:00,40.9,11.8,30.09,West,267,10.4,10.4,30,0.00,CLR,SCT,0.00,WeatherDisplay:10.37,2013-02-20 21:16:00,
2013-02-20 16:21:00,40.8,12.5,30.09,WSW,257,8.1,8.1,31,0.00,CLR,SCT,0.00,WeatherDisplay:10.37,2013-02-20 21:21:00,
2013-02-20 16:23:00,40.6,12.3,30.09,West,263,3.5,3.5,31,0.00,CLR,SCT,0.00,WeatherDisplay:10.37,2013-02-20 21:23:00,
2013-02-20 16:26:00,40.5,12.2,30.10,West,279,4.6,4.6,31,0.00,CLR,SCT,0.00,WeatherDisplay:10.37,2013-02-20 21:26:00,
2013-02-20 16:28:00,40.5,12.2,30.10,WNW,283,10.4,10.4,31,0.00,CLR,SCT,0.00,WeatherDisplay:10.37,2013-02-20 21:28:00,
2013-02-20 16:29:00,40.5,11.4,30.10,West,270,10.4,10.4,30,0.00,CLR,SCT,0.00,WeatherDisplay:10.37,2013-02-20 21:29:00,
2013-02-20 16:32:00,40.3,12.0,30.10,West,266,10.4,10.4,31,0.00,CLR,SCT,0.00,WeatherDisplay:10.37,2013-02-20 21:32:00,
2013-02-20 16:33:00,40.2,11.9,30.10,West,267,6.9,6.9,31,0.00,CLR,SCT,0.00,WeatherDisplay:10.37,2013-02-20 21:33:00,
2013-02-20 16:35:00,40.2,11.9,30.10,West,267,3.5,3.5,31,0.00,CLR,SCT,0.00,WeatherDisplay:10.37,2013-02-20 21:35:00,
2013-02-20 16:38:00,40.1,12.6,30.10,WSW,254,10.4,10.4,32,0.00,CLR,SCT,0.00,WeatherDisplay:10.37,2013-02-20 21:38:00,
2013-02-20 16:39:00,40.1,11.8,30.10,West,269,10.4,10.4,31,0.00,CLR,SCT,0.00,WeatherDisplay:10.37,2013-02-20 21:39:00,
2013-02-20 16:42:00,39.9,10.9,30.10,West,268,10.4,10.4,30,0.00,CLR,SCT,0.00,WeatherDisplay:10.37,2013-02-20 21:42:00,
2013-02-20 16:43:00,39.9,11.7,30.10,West,259,8.1,8.1,31,0.00,CLR,SCT,0.00,WeatherDisplay:10.37,2013-02-20 21:43:00,
2013-02-20 16:47:00,39.8,11.6,30.11,WSW,252,6.0,6.0,31,0.00,CLR,SCT,0.00,WeatherDisplay:10.37,2013-02-20 21:47:00,
2013-02-20 16:48:00,39.8,11.6,30.11,West,266,6.9,6.9,31,0.00,CLR,SCT,0.00,WeatherDisplay:10.37,2013-02-20 21:48:00,
2013-02-20 16:50:00,39.8,11.6,30.11,West,261,9.2,9.2,31,0.00,CLR,SCT,0.00,WeatherDisplay:10.37,2013-02-20 21:50:00,
2013-02-20 16:53:00,39.6,11.4,30.11,WNW,282,3.5,3.5,31,0.00,CLR,SCT,0.00,WeatherDisplay:10.37,2013-02-20 21:53:00,
2013-02-20 16:58:00,39.6,12.1,30.11,WNW,290,4.0,4.0,32,0.00,CLR,SCT,0.00,WeatherDisplay:10.37,2013-02-20 21:58:00,
2013-02-20 16:59:00,39.6,12.1,30.11,WNW,290,3.5,3.5,32,0.00,CLR,SCT,0.00,WeatherDisplay:10.37,2013-02-20 21:59:00,
2013-02-20 17:01:00,39.6,12.1,30.12,West,275,5.8,5.8,32,0.00,CLR,SCT,0.00,WeatherDisplay:10.37,2013-02-20 22:01:00,
2013-02-20 17:02:00,39.5,12.0,30.12,West,272,5.8,5.8,32,0.00,CLR,SCT,0.00,WeatherDisplay:10.37,2013-02-20 22:02:00,
2013-02-20 17:04:00,39.5,12.0,30.12,West,273,5.8,5.8,32,0.00,CLR,SCT,0.00,WeatherDisplay:10.37,2013-02-20 22:04:00,
2013-02-20 17:06:00,39.5,11.3,30.12,West,274,3.5,3.5,31,0.00,CLR,SCT,0.00,WeatherDisplay:10.37,2013-02-20 22:06:00,
2013-02-20 17:09:00,39.3,11.9,30.13,WSW,244,6.9,6.9,32,0.00,CLR,SCT,0.00,WeatherDisplay:10.37,2013-02-20 22:09:00,
2013-02-20 17:10:00,39.3,11.1,30.13,West,271,6.9,9.1,31,0.00,CLR,SCT,0.00,WeatherDisplay:10.37,2013-02-20 22:10:00,
2013-02-20 17:13:00,39.2,11.0,30.13,West,261,6.9,6.9,31,0.00,CLR,SCT,0.00,WeatherDisplay:10.37,2013-02-20 22:13:00,
2013-02-20 17:15:00,39.2,11.8,30.13,West,271,5.8,5.8,32,0.00,CLR,SCT,0.00,WeatherDisplay:10.37,2013-02-20 22:15:00,
2013-02-20 17:20:00,39.1,11.7,30.13,WNW,287,3.5,3.5,32,0.00,CLR,SCT,0.00,WeatherDisplay:10.37,2013-02-20 22:20:00,
2013-02-20 17:22:00,38.9,10.8,30.13,WSW,253,11.5,11.5,31,0.00,CLR,SCT,0.00,WeatherDisplay:10.37,2013-02-20 22:22:00,
2013-02-20 17:26:00,38.9,11.5,30.13,West,264,10.0,10.0,32,0.00,CLR,SCT,0.00,WeatherDisplay:10.37,2013-02-20 22:26:00,
2013-02-20 17:28:00,38.8,10.7,30.14,West,271,10.4,10.4,31,0.00,CLR,SCT,0.00,WeatherDisplay:10.37,2013-02-20 22:28:00,
2013-02-20 17:32:00,38.6,10.5,30.14,West,272,5.0,5.0,31,0.00,CLR,SCT,0.00,WeatherDisplay:10.37,2013-02-20 22:32:00,
2013-02-20 17:33:00,38.6,10.5,30.14,West,269,5.8,5.8,31,0.00,CLR,SCT,0.00,WeatherDisplay:10.37,2013-02-20 22:33:00,
2013-02-20 17:38:00,38.5,10.4,30.14,West,269,6.9,6.9,31,0.00,CLR,SCT,0.00,WeatherDisplay:10.37,2013-02-20 22:38:00,
2013-02-20 17:39:00,38.5,10.4,30.14,West,263,5.8,5.8,31,0.00,CLR,SCT,0.00,WeatherDisplay:10.37,2013-02-20 22:39:00,
2013-02-20 17:40:00,38.3,10.3,30.14,WSW,257,6.0,6.0,31,0.00,CLR,SCT,0.00,WeatherDisplay:10.37,2013-02-20 22:40:00,
2013-02-20 17:45:00,38.2,7.9,30.14,West,263,3.5,3.5,28,0.00,CLR,SCT,0.00,WeatherDisplay:10.37,2013-02-20 22:45:00,
2013-02-20 17:47:00,38.2,10.9,30.14,West,263,5.8,5.8,32,0.00,CLR,SCT,0.00,WeatherDisplay:10.37,2013-02-20 22:47:00,
2013-02-20 17:50:00,38.0,10.7,30.14,West,265,5.8,5.8,32,0.00,CLR,SCT,0.00,WeatherDisplay:10.37,2013-02-20 22:50:00,
2013-02-20 17:52:00,38.0,10.7,30.14,West,263,3.5,3.5,32,0.00,CLR,SCT,0.00,WeatherDisplay:10.37,2013-02-20 22:52:00,
2013-02-20 17:55:00,37.9,10.6,30.14,West,265,3.5,3.5,32,0.00,CLR,SCT,0.00,WeatherDisplay:10.37,2013-02-20 22:55:00,
2013-02-20 17:57:00,37.9,11.3,30.14,West,265,3.5,3.5,33,0.00,CLR,SCT,0.00,WeatherDisplay:10.37,2013-02-20 22:57:00,
2013-02-20 17:59:00,37.8,11.2,30.14,West,270,4.6,4.6,33,0.00,CLR,SCT,0.00,WeatherDisplay:10.37,2013-02-20 22:59:00,
2013-02-20 18:04:00,37.6,10.4,30.15,West,269,5.8,5.8,32,0.00,CLR,SCT,0.00,WeatherDisplay:10.37,2013-02-20 23:04:00,
2013-02-20 18:07:00,37.5,11.0,30.15,West,269,3.5,3.5,33,0.00,CLR,SCT,0.00,WeatherDisplay:10.37,2013-02-20 23:07:00,
2013-02-20 18:10:00,37.3,10.8,30.15,West,272,4.0,4.6,33,0.00,CLR,SCT,0.00,WeatherDisplay:10.37,2013-02-20 23:10:00,
2013-02-20 18:15:00,37.2,10.7,30.14,West,269,4.6,4.6,33,0.00,CLR,SCT,0.00,WeatherDisplay:10.37,2013-02-20 23:15:00,
2013-02-20 18:16:00,37.2,10.7,30.14,West,269,2.3,2.3,33,0.00,CLR,SCT,0.00,WeatherDisplay:10.37,2013-02-20 23:16:00,
2013-02-20 18:20:00,37.0,10.5,30.14,West,269,0.0,0.0,33,0.00,CLR,SCT,0.00,WeatherDisplay:10.37,2013-02-20 23:20:00,
2013-02-20 18:22:00,36.9,10.4,30.15,West,269,0.0,0.0,33,0.00,CLR,SCT,0.00,WeatherDisplay:10.37,2013-02-20 23:22:00,
2013-02-20 18:26:00,36.8,11.0,30.14,West,269,0.0,0.0,34,0.00,CLR,SCT,0.00,WeatherDisplay:10.37,2013-02-20 23:26:00,
2013-02-20 18:28:00,36.6,10.8,30.14,West,269,0.0,0.0,34,0.00,CLR,SCT,0.00,WeatherDisplay:10.37,2013-02-20 23:28:00,
2013-02-20 18:31:00,36.3,10.6,30.15,West,269,0.0,0.0,34,0.00,CLR,SCT,0.00,WeatherDisplay:10.37,2013-02-20 23:31:00,
2013-02-20 18:33:00,36.3,10.6,30.15,West,269,0.0,0.0,34,0.00,CLR,SCT,0.00,WeatherDisplay:10.37,2013-02-20 23:33:00,
2013-02-20 18:36:00,36.0,10.3,30.15,West,269,0.0,0.0,34,0.00,CLR,SCT,0.00,WeatherDisplay:10.37,2013-02-20 23:36:00,
2013-02-20 18:40:00,35.9,10.2,30.15,West,269,0.0,0.0,34,0.00,CLR,SCT,0.00,WeatherDisplay:10.37,2013-02-20 23:40:00,
2013-02-20 18:41:00,35.9,10.2,30.15,West,269,0.0,0.0,34,0.00,CLR,SCT,0.00,WeatherDisplay:10.37,2013-02-20 23:41:00,
2013-02-20 18:46:00,35.6,10.6,30.14,West,269,0.0,0.0,35,0.00,CLR,SCT,0.00,WeatherDisplay:10.37,2013-02-20 23:46:00,
2013-02-20 18:47:00,35.5,10.5,30.14,West,269,0.0,0.0,35,0.00,CLR,SCT,0.00,WeatherDisplay:10.37,2013-02-20 23:47:00,
2013-02-20 18:52:00,35.3,10.3,30.14,West,269,0.0,0.0,35,0.00,CLR,SCT,0.00,WeatherDisplay:10.37,2013-02-20 23:52:00,
2013-02-20 18:53:00,35.3,10.3,30.14,West,269,0.0,0.0,35,0.00,CLR,SCT,0.00,WeatherDisplay:10.37,2013-02-20 23:53:00,
2013-02-20 18:57:00,35.2,10.2,30.15,West,269,0.0,0.0,35,0.00,CLR,SCT,0.00,WeatherDisplay:10.37,2013-02-20 23:57:00,
2013-02-20 18:58:00,35.2,10.2,30.15,West,269,0.0,0.0,35,0.00,CLR,SCT,0.00,WeatherDisplay:10.37,2013-02-20 23:58:00,
2013-02-20 19:00:00,35.2,10.2,30.15,West,269,0.0,0.0,35,0.00,CLR,SCT,0.00,WeatherDisplay:10.37,2013-02-21 00:00:00,
2013-02-20 19:05:00,35.2,10.9,30.15,West,269,0.0,0.0,36,0.00,CLR,SCT,0.00,WeatherDisplay:10.37,2013-02-21 00:05:00,
2013-02-20 19:07:00,35.0,10.7,30.15,West,269,0.0,0.0,36,0.00,CLR,SCT,0.00,WeatherDisplay:10.37,2013-02-21 00:07:00,
2013-02-20 19:08:00,35.0,10.7,30.15,West,269,0.0,0.0,36,0.00,CLR,SCT,0.00,WeatherDisplay:10.37,2013-02-21 00:08:00,
2013-02-20 19:11:00,35.0,10.7,30.15,West,269,0.0,0.0,36,0.00,CLR,SCT,0.00,WeatherDisplay:10.37,2013-02-21 00:11:00,
2013-02-20 19:13:00,34.9,10.6,30.15,West,269,0.0,0.0,36,0.00,CLR,SCT,0.00,WeatherDisplay:10.37,2013-02-21 00:13:00,
2013-02-20 19:16:00,34.9,11.2,30.16,West,269,0.0,0.0,37,0.00,CLR,SCT,0.00,WeatherDisplay:10.37,2013-02-21 00:16:00,
2013-02-20 19:17:00,34.7,11.0,30.16,West,269,0.0,0.0,37,0.00,CLR,SCT,0.00,WeatherDisplay:10.37,2013-02-21 00:17:00,
2013-02-20 19:21:00,34.6,11.0,30.16,West,269,0.0,0.0,37,0.00,CLR,SCT,0.00,WeatherDisplay:10.37,2013-02-21 00:21:00,
2013-02-20 19:22:00,34.6,11.0,30.16,West,269,0.0,0.0,37,0.00,CLR,SCT,0.00,WeatherDisplay:10.37,2013-02-21 00:22:00,
2013-02-20 19:23:00,34.6,11.0,30.16,West,269,0.0,0.0,37,0.00,CLR,SCT,0.00,WeatherDisplay:10.37,2013-02-21 00:23:00,
2013-02-20 19:28:00,34.3,10.7,30.16,West,269,0.0,0.0,37,0.00,CLR,SCT,0.00,WeatherDisplay:10.37,2013-02-21 00:28:00,
2013-02-20 19:29:00,34.3,11.3,30.16,West,269,0.0,0.0,38,0.00,CLR,SCT,0.00,WeatherDisplay:10.37,2013-02-21 00:29:00,
2013-02-20 19:33:00,34.1,11.1,30.16,West,269,0.0,0.0,38,0.00,CLR,SCT,0.00,WeatherDisplay:10.37,2013-02-21 00:33:00,
2013-02-20 19:34:00,34.1,11.1,30.16,West,269,0.0,0.0,38,0.00,CLR,SCT,0.00,WeatherDisplay:10.37,2013-02-21 00:34:00,
2013-02-20 19:36:00,34.1,11.1,30.16,West,269,0.0,0.0,38,0.00,CLR,SCT,0.00,WeatherDisplay:10.37,2013-02-21 00:36:00,
2013-02-20 19:38:00,34.0,11.6,30.16,West,269,0.0,0.0,39,0.00,CLR,SCT,0.00,WeatherDisplay:10.37,2013-02-21 00:38:00,
2013-02-20 19:40:00,34.0,11.6,30.16,West,269,0.0,0.0,39,0.00,CLR,SCT,0.00,WeatherDisplay:10.37,2013-02-21 00:40:00,
2013-02-20 19:42:00,33.8,11.4,30.16,West,269,0.0,0.0,39,0.00,CLR,SCT,0.00,WeatherDisplay:10.37,2013-02-21 00:42:00,
2013-02-20 19:43:00,33.8,11.4,30.16,West,269,0.0,0.0,39,0.00,CLR,SCT,0.00,WeatherDisplay:10.37,2013-02-21 00:43:00,
2013-02-20 19:47:00,33.7,11.3,30.15,West,269,0.0,0.0,39,0.00,CLR,SCT,0.00,WeatherDisplay:10.37,2013-02-21 00:47:00,
2013-02-20 19:49:00,33.5,11.2,30.16,West,269,0.0,0.0,39,0.00,CLR,SCT,0.00,WeatherDisplay:10.37,2013-02-21 00:49:00,
2013-02-20 19:52:00,33.4,11.1,30.16,West,269,0.0,0.0,39,0.00,CLR,SCT,0.00,WeatherDisplay:10.37,2013-02-21 00:52:00,
2013-02-20 19:53:00,33.4,11.1,30.17,West,269,0.0,0.0,39,0.00,CLR,SCT,0.00,WeatherDisplay:10.37,2013-02-21 00:53:00,
2013-02-20 19:56:00,33.2,11.5,30.16,West,269,0.0,0.0,40,0.00,CLR,SCT,0.00,WeatherDisplay:10.37,2013-02-21 00:56:00,
2013-02-20 19:57:00,33.1,11.4,30.16,West,269,0.0,0.0,40,0.00,CLR,SCT,0.00,WeatherDisplay:10.37,2013-02-21 00:57:00,
2013-02-20 19:58:00,33.1,10.8,30.16,West,269,0.0,0.0,39,0.00,CLR,SCT,0.00,WeatherDisplay:10.37,2013-02-21 00:58:00,
2013-02-20 20:00:00,32.9,10.6,30.16,West,269,0.0,0.0,39,0.00,CLR,SCT,0.00,WeatherDisplay:10.37,2013-02-21 01:00:00,
2013-02-20 20:02:00,32.8,10.5,30.15,West,269,0.0,0.0,39,0.00,CLR,SCT,0.00,WeatherDisplay:10.37,2013-02-21 01:02:00,
2013-02-20 20:05:00,32.5,10.8,30.15,West,269,0.0,0.0,40,0.00,,SCT,0.00,WeatherDisplay:10.37,2013-02-21 01:05:00,
2013-02-20 20:06:00,32.5,10.8,30.15,West,269,0.0,0.0,40,0.00,,SCT,0.00,WeatherDisplay:10.37,2013-02-21 01:06:00,
2013-02-20 20:07:00,32.4,10.7,30.15,West,269,0.0,0.0,40,0.00,,SCT,0.00,WeatherDisplay:10.37,2013-02-21 01:07:00,
2013-02-20 20:12:00,32.1,10.5,30.15,West,269,0.0,0.0,40,0.00,,SCT,0.00,WeatherDisplay:10.37,2013-02-21 01:12:00,
2013-02-20 20:17:00,31.8,10.2,30.15,West,269,0.0,0.0,40,0.00,,SCT,0.00,WeatherDisplay:10.37,2013-02-21 01:17:00,
2013-02-20 20:18:00,31.6,10.6,30.15,West,269,0.0,0.0,41,0.00,,SCT,0.00,WeatherDisplay:10.37,2013-02-21 01:18:00,
2013-02-20 20:19:00,31.6,10.6,30.15,West,269,0.0,0.0,41,0.00,,SCT,0.00,WeatherDisplay:10.37,2013-02-21 01:19:00,
2013-02-20 20:20:00,31.6,10.6,30.15,West,269,0.0,0.0,41,0.00,,SCT,0.00,WeatherDisplay:10.37,2013-02-21 01:20:00,
2013-02-20 20:23:00,31.3,10.3,30.15,West,269,0.0,0.0,41,0.00,,SCT,0.00,WeatherDisplay:10.37,2013-02-21 01:23:00,
2013-02-20 20:26:00,31.2,10.2,30.15,West,269,0.0,0.0,41,0.00,,SCT,0.00,WeatherDisplay:10.37,2013-02-21 01:26:00,
2013-02-20 20:27:00,31.0,10.0,30.15,West,269,0.0,0.0,41,0.00,,SCT,0.00,WeatherDisplay:10.37,2013-02-21 01:27:00,
2013-02-20 20:28:00,31.0,10.0,30.15,West,269,0.0,0.0,41,0.00,,SCT,0.00,WeatherDisplay:10.37,2013-02-21 01:28:00,
2013-02-20 20:29:00,30.9,9.9,30.15,West,269,0.0,0.0,41,0.00,,SCT,0.00,WeatherDisplay:10.37,2013-02-21 01:29:00,
2013-02-20 20:34:00,30.4,10.0,30.15,West,269,0.0,0.0,42,0.00,,SCT,0.00,WeatherDisplay:10.37,2013-02-21 01:34:00,
2013-02-20 20:37:00,30.1,9.7,30.15,West,269,0.0,0.0,42,0.00,,SCT,0.00,WeatherDisplay:10.37,2013-02-21 01:37:00,
2013-02-20 20:39:00,29.8,9.5,30.15,West,269,0.0,0.0,42,0.00,,SCT,0.00,WeatherDisplay:10.37,2013-02-21 01:39:00,
2013-02-20 20:40:00,29.8,9.5,30.15,West,269,0.0,0.0,42,0.00,,SCT,0.00,WeatherDisplay:10.37,2013-02-21 01:40:00,
2013-02-20 20:45:00,29.4,8.6,30.16,West,269,0.0,0.0,41,0.00,,SCT,0.00,WeatherDisplay:10.37,2013-02-21 01:45:00,
2013-02-20 20:46:00,29.3,8.5,30.16,West,269,0.0,0.0,41,0.00,,SCT,0.00,WeatherDisplay:10.37,2013-02-21 01:46:00,
2013-02-20 20:47:00,29.1,8.3,30.16,West,269,0.0,0.0,41,0.00,,SCT,0.00,WeatherDisplay:10.37,2013-02-21 01:47:00,
2013-02-20 20:53:00,28.8,8.0,30.16,West,269,0.0,0.0,41,0.00,,SCT,0.00,WeatherDisplay:10.37,2013-02-21 01:53:00,
2013-02-20 20:58:00,28.4,8.2,30.16,West,269,0.0,0.0,42,0.00,,SCT,0.00,WeatherDisplay:10.37,2013-02-21 01:58:00,
2013-02-20 20:59:00,28.2,8.0,30.16,West,269,0.0,0.0,42,0.00,,SCT,0.00,WeatherDisplay:10.37,2013-02-21 01:59:00,
2013-02-20 21:04:00,27.9,8.3,30.16,West,269,0.0,0.0,43,0.00,,SCT,0.00,WeatherDisplay:10.37,2013-02-21 02:04:00,
2013-02-20 21:09:00,27.6,8.0,30.16,West,269,0.0,0.0,43,0.00,,SCT,0.00,WeatherDisplay:10.37,2013-02-21 02:09:00,
2013-02-20 21:10:00,27.5,7.9,30.16,West,269,0.0,0.0,43,0.00,,SCT,0.00,WeatherDisplay:10.37,2013-02-21 02:10:00,
2013-02-20 21:15:00,27.0,8.0,30.17,West,269,0.0,0.0,44,0.00,,SCT,0.00,WeatherDisplay:10.37,2013-02-21 02:15:00,
2013-02-20 21:20:00,26.7,8.2,30.16,West,269,0.0,0.0,45,0.00,,SCT,0.00,WeatherDisplay:10.37,2013-02-21 02:20:00,
2013-02-20 21:25:00,26.3,7.8,30.17,West,269,0.0,0.0,45,0.00,,SCT,0.00,WeatherDisplay:10.37,2013-02-21 02:25:00,
2013-02-20 21:31:00,25.8,7.8,30.16,West,269,0.0,0.0,46,0.00,,SCT,0.00,WeatherDisplay:10.37,2013-02-21 02:31:00,
2013-02-20 21:33:00,25.7,8.2,30.16,West,269,0.0,0.0,47,0.00,,SCT,0.00,WeatherDisplay:10.37,2013-02-21 02:33:00,
2013-02-20 21:36:00,25.3,7.9,30.16,West,269,0.0,0.0,47,0.00,,SCT,0.00,WeatherDisplay:10.37,2013-02-21 02:36:00,
2013-02-20 21:40:00,24.8,7.4,30.17,West,269,0.0,0.0,47,0.00,,SCT,0.00,WeatherDisplay:10.37,2013-02-21 02:40:00,
2013-02-20 21:41:00,24.8,6.9,30.17,West,269,0.0,0.0,46,0.00,,SCT,0.00,WeatherDisplay:10.37,2013-02-21 02:41:00,
2013-02-20 21:47:00,24.4,6.6,30.17,West,269,0.0,0.0,46,0.00,,SCT,0.00,WeatherDisplay:10.37,2013-02-21 02:47:00,
2013-02-20 21:48:00,24.2,6.4,30.17,West,269,0.0,0.0,46,0.00,,SCT,0.00,WeatherDisplay:10.37,2013-02-21 02:48:00,
2013-02-20 21:49:00,24.2,6.4,30.17,West,269,0.0,0.0,46,0.00,,SCT,0.00,WeatherDisplay:10.37,2013-02-21 02:49:00,
2013-02-20 21:50:00,24.2,6.4,30.17,West,269,0.0,0.0,46,0.00,,SCT,0.00,WeatherDisplay:10.37,2013-02-21 02:50:00,
2013-02-20 21:52:00,24.1,6.7,30.17,West,269,0.0,0.0,47,0.00,,SCT,0.00,WeatherDisplay:10.37,2013-02-21 02:52:00,
2013-02-20 21:55:00,23.9,6.1,30.17,West,269,0.0,0.0,46,0.00,,SCT,0.00,WeatherDisplay:10.37,2013-02-21 02:55:00,
2013-02-20 21:57:00,23.9,6.1,30.17,West,269,0.0,0.0,46,0.00,,SCT,0.00,WeatherDisplay:10.37,2013-02-21 02:57:00,
2013-02-20 21:58:00,23.9,6.1,30.17,West,269,0.0,0.0,46,0.00,,SCT,0.00,WeatherDisplay:10.37,2013-02-21 02:58:00,
2013-02-20 22:01:00,23.8,6.5,30.17,West,269,0.0,0.0,47,0.00,,SCT,0.00,WeatherDisplay:10.37,2013-02-21 03:01:00,
2013-02-20 22:03:00,23.8,6.5,30.17,West,269,0.0,0.0,47,0.00,,SCT,0.00,WeatherDisplay:10.37,2013-02-21 03:03:00,
2013-02-20 22:06:00,23.6,6.3,30.17,West,269,0.0,0.0,47,0.00,,SCT,0.00,WeatherDisplay:10.37,2013-02-21 03:06:00,
2013-02-20 22:07:00,23.6,6.3,30.17,West,269,0.0,0.0,47,0.00,,SCT,0.00,WeatherDisplay:10.37,2013-02-21 03:07:00,
2013-02-20 22:11:00,23.5,5.7,30.17,West,269,0.0,0.0,46,0.00,,SCT,0.00,WeatherDisplay:10.37,2013-02-21 03:11:00,
2013-02-20 22:14:00,23.5,6.2,30.17,West,269,0.0,0.0,47,0.00,,SCT,0.00,WeatherDisplay:10.37,2013-02-21 03:14:00,
2013-02-20 22:17:00,23.3,6.9,30.17,West,269,0.0,0.0,49,0.00,,SCT,0.00,WeatherDisplay:10.37,2013-02-21 03:17:00,
2013-02-20 22:19:00,23.2,6.8,30.17,West,269,0.0,0.0,49,0.00,,SCT,0.00,WeatherDisplay:10.37,2013-02-21 03:19:00,
2013-02-20 22:22:00,23.2,6.8,30.16,West,269,0.0,0.0,49,0.00,,SCT,0.00,WeatherDisplay:10.37,2013-02-21 03:22:00,
2013-02-20 22:24:00,23.0,6.7,30.16,West,269,0.0,0.0,49,0.00,,SCT,0.00,WeatherDisplay:10.37,2013-02-21 03:24:00,
2013-02-20 22:29:00,22.7,6.8,30.16,West,269,0.0,0.0,50,0.00,,SCT,0.00,WeatherDisplay:10.37,2013-02-21 03:29:00,
2013-02-20 22:30:00,22.7,7.3,30.16,West,269,0.0,0.0,51,0.00,,SCT,0.00,WeatherDisplay:10.37,2013-02-21 03:30:00,
2013-02-20 22:34:00,22.4,7.0,30.16,West,269,0.0,0.0,51,0.00,,SCT,0.00,WeatherDisplay:10.37,2013-02-21 03:34:00,
2013-02-20 22:35:00,22.2,6.8,30.16,West,269,0.0,0.0,51,0.00,,SCT,0.00,WeatherDisplay:10.37,2013-02-21 03:35:00,
2013-02-20 22:39:00,22.2,6.8,30.15,West,269,0.0,0.0,51,0.00,,SCT,0.00,WeatherDisplay:10.37,2013-02-21 03:39:00,
2013-02-20 22:41:00,22.1,6.7,30.16,West,269,0.0,0.0,51,0.00,,SCT,0.00,WeatherDisplay:10.37,2013-02-21 03:41:00,
2013-02-20 22:45:00,22.2,7.2,30.16,West,269,0.0,0.0,52,0.00,,SCT,0.00,WeatherDisplay:10.37,2013-02-21 03:45:00,
2013-02-20 22:49:00,22.2,7.6,30.16,West,269,0.0,0.0,53,0.00,,SCT,0.00,WeatherDisplay:10.37,2013-02-21 03:49:00,
2013-02-20 22:54:00,22.1,7.1,30.16,West,269,0.0,0.0,52,0.00,,SCT,0.00,WeatherDisplay:10.37,2013-02-21 03:54:00,
2013-02-20 22:55:00,22.1,7.1,30.16,West,269,0.0,0.0,52,0.00,,SCT,0.00,WeatherDisplay:10.37,2013-02-21 03:55:00,
2013-02-20 22:57:00,22.1,7.1,30.16,West,269,0.0,0.0,52,0.00,,SCT,0.00,WeatherDisplay:10.37,2013-02-21 03:57:00,
2013-02-20 23:01:00,21.9,6.5,30.16,West,269,0.0,0.0,51,0.00,,SCT,0.00,WeatherDisplay:10.37,2013-02-21 04:01:00,
2013-02-20 23:02:00,21.9,6.5,30.16,West,269,0.0,0.0,51,0.00,,SCT,0.00,WeatherDisplay:10.37,2013-02-21 04:02:00,
2013-02-20 23:08:00,21.6,6.2,30.16,West,269,0.0,0.0,51,0.00,,SCT,0.00,WeatherDisplay:10.37,2013-02-21 04:08:00,
2013-02-20 23:09:00,21.6,6.2,30.16,West,269,0.0,0.0,51,0.00,,SCT,0.00,WeatherDisplay:10.37,2013-02-21 04:09:00,
2013-02-20 23:14:00,21.6,6.7,30.17,West,269,0.0,0.0,52,0.00,,SCT,0.00,WeatherDisplay:10.37,2013-02-21 04:14:00,
2013-02-20 23:16:00,21.6,6.7,30.17,West,269,0.0,0.0,52,0.00,,SCT,0.00,WeatherDisplay:10.37,2013-02-21 04:16:00,
2013-02-20 23:19:00,21.6,6.2,30.17,West,269,0.0,0.0,51,0.00,,SCT,0.00,WeatherDisplay:10.37,2013-02-21 04:19:00,
2013-02-20 23:22:00,21.6,6.7,30.16,West,269,0.0,0.0,52,0.00,,SCT,0.00,WeatherDisplay:10.37,2013-02-21 04:22:00,
2013-02-20 23:25:00,21.6,6.7,30.17,West,269,0.0,0.0,52,0.00,,SCT,0.00,WeatherDisplay:10.37,2013-02-21 04:25:00,
2013-02-20 23:28:00,21.6,7.1,30.16,West,269,0.0,0.0,53,0.00,,SCT,0.00,WeatherDisplay:10.37,2013-02-21 04:28:00,
2013-02-20 23:31:00,21.6,7.1,30.16,West,269,0.0,0.0,53,0.00,,SCT,0.00,WeatherDisplay:10.37,2013-02-21 04:31:00,
2013-02-20 23:32:00,21.6,7.5,30.15,West,269,0.0,0.0,54,0.00,,SCT,0.00,WeatherDisplay:10.37,2013-02-21 04:32:00,
2013-02-20 23:35:00,21.4,7.7,30.15,West,269,0.0,0.0,55,0.00,,SCT,0.00,WeatherDisplay:10.37,2013-02-21 04:35:00,
2013-02-20 23:40:00,21.1,7.0,30.15,West,269,0.0,0.0,54,0.00,,SCT,0.00,WeatherDisplay:10.37,2013-02-21 04:40:00,
2013-02-20 23:42:00,21.1,7.0,30.15,West,269,0.0,0.0,54,0.00,,SCT,0.00,WeatherDisplay:10.37,2013-02-21 04:42:00,
2013-02-20 23:43:00,21.0,6.9,30.15,West,269,0.0,0.0,54,0.00,,SCT,0.00,WeatherDisplay:10.37,2013-02-21 04:43:00,
2013-02-20 23:46:00,20.8,6.7,30.16,West,269,0.0,0.0,54,0.00,,SCT,0.00,WeatherDisplay:10.37,2013-02-21 04:46:00,
2013-02-20 23:48:00,20.8,6.7,30.15,West,269,0.0,0.0,54,0.00,,SCT,0.00,WeatherDisplay:10.37,2013-02-21 04:48:00,
2013-02-20 23:50:00,20.8,7.2,30.15,West,269,0.0,0.0,55,0.00,,SCT,0.00,WeatherDisplay:10.37,2013-02-21 04:50:00,
2013-02-20 23:51:00,20.8,7.2,30.16,West,269,0.0,0.0,55,0.00,,SCT,0.00,WeatherDisplay:10.37,2013-02-21 04:51:00,
2013-02-20 23:53:00,20.8,7.2,30.16,West,269,0.0,0.0,55,0.00,,SCT,0.00,WeatherDisplay:10.37,2013-02-21 04:53:00,
2013-02-20 23:55:00,20.8,6.7,30.16,West,269,0.0,0.0,54,0.00,,SCT,0.00,WeatherDisplay:10.37,2013-02-21 04:55:00,
2013-02-20 23:56:00,20.8,6.7,30.15,West,269,0.0,0.0,54,0.00,,SCT,0.00,WeatherDisplay:10.37,2013-02-21 04:56:00,
2013-02-20 23:59:00,20.8,7.2,30.16,West,269,0.0,0.0,55,0.00,,SCT,0.00,WeatherDisplay:10.37,2013-02-21 04:59:00,